K3TXT Weather Reports


time (UTC)temp
F
wind
direction
speed
knots
gust
knots
rain 1hr
in
rain 24hr
in
rain mn
in
humidity
%
barometer
mb
20260906125730 0 0 0.9 2.6 0.00 0.04 0.00 1013.0
20260906125630 0 0 0.9 2.6 0.00 0.04 0.00 1012.9
20260906125529 0 0 1.7 3.5 0.00 0.04 0.00 1012.9
20260906125428 0 0 1.7 5.2 0.00 0.04 0.00 1012.9
20260906125228 0 0 1.7 5.2 0.00 0.04 0.00 1012.8
20260906125127 0 0 1.7 5.2 0.00 0.04 0.00 1012.8
20260906125027 0 355 1.7 5.2 0.00 0.04 0.00 1012.9
20260906124928 0 355 1.7 5.2 0.00 0.04 0.00 1012.8
20260906124725 0 355 1.7 5.2 0.00 0.04 0.00 1012.8
20260906124626 0 0 0.9 5.2 0.00 0.04 0.00 1012.8
20260906124524 0 0 0.9 5.2 0.00 0.04 0.00 1012.7
20260906124423 0 327 0.9 3.5 0.00 0.04 0.00 1012.8
20260906124221 0 327 0.9 3.5 0.00 0.04 0.00 1012.8
20260906124122 0 327 0.9 3.5 0.00 0.04 0.00 1012.7
20260906124021 0 327 0.9 7.8 0.00 0.04 0.00 1012.8
20260906123922 0 327 0.9 7.8 0.00 0.04 0.00 1012.7
20260906123723 0 327 0.9 7.8 0.00 0.04 0.00 1012.8
20260906123623 0 327 1.7 7.8 0.00 0.04 0.00 1012.8
20260906123519 0 327 1.7 7.8 0.00 0.04 0.00 1012.8
20260906123421 0 327 1.7 7.8 0.00 0.04 0.00 1012.8
20260906123318 0 327 1.7 7.8 0.00 0.04 0.00 1012.8
20260906123219 0 325 1.7 7.8 0.00 0.04 0.00 1012.8
20260906123116 0 325 1.7 7.8 0.00 0.04 0.00 1012.8
20260906123015 0 331 0.9 4.3 0.00 0.04 0.00 1012.8
20260906122914 0 350 0.9 4.3 0.00 0.04 0.00 1012.8
20260906122815 0 350 0.9 4.3 0.00 0.04 0.00 1012.8
20260906122715 0 350 0.9 4.3 0.00 0.04 0.00 1012.8
20260906122614 0 335 0.9 3.5 0.00 0.04 0.00 1012.8
20260906122512 0 335 0.9 3.5 0.00 0.04 0.00 1012.8
20260906122437 0 335 0.9 3.5 0.00 0.04 0.00 1012.9
20260906122310 0 335 0.9 3.5 0.00 0.04 0.00 1012.9
20260906122211 0 335 0.9 3.5 0.00 0.04 0.00 1012.9
20260906122109 0 335 0.9 3.5 0.00 0.04 0.00 1012.9
20260906122011 0 335 0.9 3.5 0.00 0.04 0.00 1012.8
20260906121911 0 335 0.9 3.5 0.00 0.04 0.00 1012.9
20260906121810 0 335 0.9 3.5 0.00 0.04 0.00 1012.8
20260906121709 0 335 0.9 3.5 0.00 0.04 0.00 1012.7
20260906121610 0 335 1.7 3.5 0.00 0.04 0.00 1012.8
20260906121509 0 335 1.7 3.5 0.00 0.04 0.00 1012.9
20260906121407 0 335 1.7 3.5 0.00 0.04 0.00 1012.9
20260906121305 0 335 1.7 3.5 0.00 0.04 0.00 1012.8
20260906121205 0 335 1.7 3.5 0.00 0.04 0.00 1012.8
20260906121105 0 335 1.7 3.5 0.00 0.04 0.00 1012.7
20260906121004 0 335 1.7 3.5 0.00 0.04 0.00 1012.8
20260906120903 0 335 1.7 3.5 0.00 0.04 0.00 1012.8
20260906120803 0 335 1.7 3.5 0.00 0.04 0.00 1012.7
20260906120701 0 335 1.7 3.5 0.00 0.04 0.00 1012.7
20260906120601 0 335 1.7 3.5 0.00 0.04 0.00 1012.7
20260906120500 0 335 1.7 3.5 0.00 0.04 0.00 1012.7
20260906120436 0 335 1.7 3.5 0.00 0.04 0.00 1012.7
20260906120259 0 335 0.9 3.5 0.00 0.04 0.00 1012.6
20260906120157 0 335 0.9 3.5 0.00 0.04 0.00 1012.6
20260906120058 0 335 0.9 2.6 0.00 0.04 0.00 1012.6
20260906115956 0 335 0.9 2.6 0.00 0.04 0.00 1012.7
20260906115853 0 335 0.9 2.6 0.00 0.04 0.00 1012.6
20260906115753 0 335 0.9 2.6 0.00 0.04 0.00 1012.6
20260906115653 0 335 0.9 1.7 0.00 0.04 0.00 1012.6
20260906115552 0 335 0.0 1.7 0.00 0.04 0.00 1012.6
20260906115451 0 335 0.0 1.7 0.00 0.04 0.00 1012.6
20260906115351 0 335 0.0 1.7 0.00 0.04 0.00 1012.6
20260906115249 0 335 0.0 1.7 0.00 0.04 0.00 1012.7
20260906115151 0 335 0.0 1.7 0.00 0.04 0.00 1012.6
20260906115050 0 335 0.0 1.7 0.00 0.04 0.00 1012.6
20260906114948 0 335 0.0 1.7 0.00 0.04 0.00 1012.6
20260906114847 0 335 0.0 1.7 0.00 0.04 0.00 1012.7
20260906114746 0 335 0.0 1.7 0.00 0.04 0.00 1012.6
20260906114645 0 335 0.9 1.7 0.00 0.04 0.00 1012.7
20260906114546 0 335 0.9 1.7 0.00 0.04 0.00 1012.6
20260906114443 0 335 0.9 1.7 0.00 0.04 0.00 1012.6
20260906114343 0 335 0.9 1.7 0.00 0.04 0.00 1012.6
20260906114241 0 335 0.9 1.7 0.00 0.04 0.00 1012.5
20260906114142 0 335 0.9 1.7 0.00 0.04 0.00 1012.6
20260906114041 0 335 0.9 1.7 0.00 0.04 0.00 1012.7
20260906113940 0 335 0.9 1.7 0.00 0.04 0.00 1012.7
20260906113838 0 335 0.0 1.7 0.00 0.04 0.00 1012.6
20260906113737 0 335 0.0 1.7 0.00 0.04 0.00 1012.6
20260906113638 0 335 0.0 1.7 0.00 0.04 0.00 1012.6
20260906113538 0 335 0.0 1.7 0.00 0.04 0.00 1012.6
20260906113436 0 335 0.0 1.7 0.00 0.04 0.00 1012.5
20260906113233 0 335 0.0 0.0 0.00 0.04 0.00 1012.5
20260906113134 0 335 0.0 0.0 0.00 0.04 0.00 1012.5
20260906113033 0 335 0.0 0.0 0.00 0.04 0.00 1012.5
20260906112933 0 335 0.0 0.0 0.00 0.04 0.00 1012.5
20260906112730 0 335 0.0 0.0 0.00 0.04 0.00 1012.5
20260906112629 0 335 0.0 0.0 0.00 0.04 0.00 1012.6
20260906112529 0 335 0.0 0.0 0.00 0.04 0.00 1012.6
20260906112428 0 335 0.0 0.0 0.00 0.04 0.00 1012.6
20260906112227 0 335 0.0 0.0 0.00 0.04 0.00 1012.5
20260906112125 0 335 0.0 0.0 0.00 0.04 0.00 1012.5
20260906112024 0 335 0.0 0.0 0.00 0.04 0.00 1012.5
20260906111925 0 335 0.0 0.0 0.00 0.04 0.00 1012.5
20260906111721 0 335 0.0 0.0 0.00 0.04 0.00 1012.5
20260906111622 0 335 0.0 0.0 0.00 0.04 0.00 1012.5
20260906111520 0 335 0.0 0.0 0.00 0.04 0.00 1012.5
20260906111420 0 335 0.0 0.0 0.00 0.04 0.00 1012.5
20260906111218 0 335 0.0 0.0 0.00 0.04 0.00 1012.5
20260906111117 0 335 0.0 0.0 0.00 0.04 0.00 1012.5
20260906111017 0 335 0.0 0.0 0.00 0.04 0.00 1012.4
20260906110917 0 335 0.0 0.0 0.00 0.04 0.00 1012.4
20260906110715 0 335 0.0 0.0 0.00 0.04 0.00 1012.5
20260906110615 0 335 0.0 0.0 0.00 0.04 0.00 1012.5
20260906110514 0 335 0.0 0.0 0.00 0.04 0.00 1012.4
20260906110412 0 335 0.0 0.9 0.00 0.04 0.00 1012.5
20260906110210 0 335 0.0 0.9 0.00 0.04 0.00 1012.5
20260906110109 0 335 0.0 0.9 0.00 0.04 0.00 1012.5
20260906110009 0 335 0.0 0.9 0.00 0.04 0.00 1012.4
20260906105908 0 335 0.0 0.9 0.00 0.04 0.00 1012.4
20260906105807 0 335 0.0 0.9 0.00 0.04 0.00 1012.4
20260906105707 0 335 0.0 0.9 0.00 0.04 0.00 1012.4
20260906105608 0 335 0.0 0.9 0.00 0.04 0.00 1012.3
20260906105508 0 335 0.0 0.9 0.00 0.04 0.00 1012.4
20260906105407 0 335 0.0 0.9 0.00 0.04 0.00 1012.2
20260906105308 0 335 0.0 0.9 0.00 0.04 0.00 1012.3
20260906105207 0 335 0.0 0.9 0.00 0.04 0.00 1012.3
20260906105107 0 335 0.0 0.9 0.00 0.04 0.00 1012.2
20260906105009 0 335 0.0 0.9 0.00 0.04 0.00 1012.2
20260906104926 0 335 0.0 0.9 0.00 0.04 0.00 1012.3
20260906104807 0 335 0.0 0.9 0.00 0.04 0.00 1012.3
20260906104705 0 335 0.0 0.9 0.00 0.04 0.00 1012.3
20260906104607 0 335 0.0 0.9 0.00 0.04 0.00 1012.3
20260906104503 0 335 0.0 0.0 0.00 0.04 0.00 1012.2
20260906104403 0 335 0.0 0.0 0.00 0.04 0.00 1012.2
20260906104303 0 335 0.0 0.0 0.00 0.04 0.00 1012.3
20260906104201 0 335 0.0 0.0 0.00 0.04 0.00 1012.2
20260906104101 0 335 0.0 0.0 0.00 0.04 0.00 1012.2
20260906104001 0 335 0.0 0.0 0.00 0.04 0.00 1012.1
20260906103859 0 335 0.0 0.0 0.00 0.04 0.00 1012.2
20260906103800 0 335 0.0 0.0 0.00 0.04 0.00 1012.1
20260906103657 0 335 0.0 0.0 0.00 0.04 0.00 1012.1
20260906103557 0 335 0.0 0.0 0.00 0.04 0.00 1012.1
20260906103456 0 335 0.0 0.0 0.00 0.04 0.00 1012.1
20260906103355 0 335 0.0 0.0 0.00 0.04 0.00 1012.1
20260906103256 0 335 0.0 0.9 0.00 0.04 0.00 1012.2
20260906103154 0 335 0.0 0.9 0.00 0.04 0.00 1012.1
20260906103055 0 335 0.0 1.7 0.00 0.04 0.00 1012.1
20260906102951 0 335 0.0 1.7 0.00 0.04 0.00 1012.2
20260906102852 0 335 0.0 1.7 0.00 0.04 0.00 1012.1
20260906102751 0 335 0.0 1.7 0.00 0.04 0.00 1012.2
20260906102650 0 335 0.0 1.7 0.00 0.04 0.00 1012.1
20260906102549 0 335 0.0 1.7 0.00 0.04 0.00 1012.1
20260906102447 0 335 0.0 1.7 0.00 0.04 0.00 1012.0
20260906102347 0 335 0.0 1.7 0.00 0.04 0.00 1012.0
20260906102248 0 335 0.0 1.7 0.00 0.04 0.00 1012.0
20260906102146 0 335 0.0 1.7 0.00 0.04 0.00 1011.9
20260906102046 0 335 0.0 0.9 0.00 0.04 0.00 1011.8
20260906101944 0 335 0.0 0.0 0.00 0.04 0.00 1011.9
20260906101922 0 335 0.0 0.0 0.00 0.04 0.00 1011.9
20260906101745 0 335 0.0 0.0 0.00 0.04 0.00 1011.8
20260906101642 0 335 0.0 0.0 0.00 0.04 0.00 1011.9
20260906101541 0 335 0.0 0.0 0.00 0.04 0.00 1011.8
20260906101439 0 335 0.0 0.0 0.00 0.04 0.00 1011.8
20260906101420 0 335 0.0 0.0 0.00 0.04 0.00 1011.8
20260906101239 0 335 0.0 0.0 0.00 0.04 0.00 1011.8
20260906101138 0 335 0.0 0.0 0.00 0.04 0.00 1011.9
20260906101037 0 335 0.0 0.0 0.00 0.04 0.00 1011.7
20260906100936 0 335 0.0 0.0 0.00 0.04 0.00 1011.8
20260906100835 0 335 0.0 0.0 0.00 0.04 0.00 1011.8
20260906100735 0 335 0.0 0.9 0.00 0.04 0.00 1011.7
20260906100633 0 335 0.0 0.9 0.00 0.04 0.00 1011.7
20260906100533 0 335 0.0 0.9 0.00 0.04 0.00 1011.7
20260906100432 0 335 0.0 0.9 0.00 0.04 0.00 1011.7
20260906100331 0 335 0.0 0.9 0.00 0.04 0.00 1011.7
20260906100232 0 335 0.0 0.9 0.00 0.04 0.00 1011.7
20260906100129 0 335 0.0 0.9 0.00 0.04 0.00 1011.7
20260906100029 0 335 0.0 0.9 0.00 0.04 0.00 1011.7
20260906095927 0 335 0.0 0.9 0.00 0.04 0.00 1011.6
20260906095829 0 335 0.0 0.9 0.00 0.04 0.00 1011.7
20260906095727 0 335 0.0 0.0 0.00 0.04 0.00 1011.7
20260906095627 0 335 0.0 0.0 0.00 0.04 0.00 1011.7
20260906095526 0 335 0.0 0.0 0.00 0.04 0.00 1011.7
20260906095423 0 335 0.0 0.0 0.00 0.04 0.00 1011.7
20260906095323 0 335 0.0 0.0 0.00 0.04 0.00 1011.7
20260906095224 0 335 0.0 0.0 0.00 0.04 0.00 1011.8
20260906095122 0 335 0.0 0.0 0.00 0.04 0.00 1011.7
20260906095022 0 335 0.0 0.0 0.00 0.04 0.00 1011.8
20260906094919 0 335 0.0 0.0 0.00 0.04 0.00 1011.7
20260906094720 0 335 0.0 0.0 0.00 0.04 0.00 1011.7
20260906094617 0 335 0.0 0.9 0.00 0.04 0.00 1011.7
20260906094517 0 335 0.0 1.7 0.00 0.04 0.00 1011.7
20260906094415 0 335 0.0 1.7 0.00 0.04 0.00 1011.7
20260906094315 0 335 0.0 1.7 0.00 0.04 0.00 1011.8
20260906094216 0 335 0.0 1.7 0.00 0.04 0.00 1011.7
20260906094115 0 335 0.0 1.7 0.00 0.04 0.00 1011.8
20260906094013 0 335 0.0 1.7 0.00 0.04 0.00 1011.7
20260906093912 0 335 0.0 1.7 0.00 0.04 0.00 1011.8
20260906093813 0 335 0.9 1.7 0.00 0.04 0.00 1011.8
20260906093711 0 335 0.9 1.7 0.00 0.04 0.00 1011.7
20260906093610 0 335 0.0 1.7 0.00 0.04 0.00 1011.6
20260906093509 0 335 0.0 1.7 0.00 0.04 0.00 1011.7
20260906093409 0 335 0.0 1.7 0.00 0.04 0.00 1011.7
20260906093207 0 335 0.0 1.7 0.00 0.04 0.00 1011.7
20260906093105 0 335 0.0 1.7 0.00 0.04 0.00 1011.7
20260906093003 0 335 0.0 1.7 0.00 0.04 0.00 1011.7
20260906092904 0 335 0.0 1.7 0.00 0.04 0.00 1011.7
20260906092803 0 335 0.0 1.7 0.00 0.04 0.00 1011.7
20260906092703 0 335 0.0 1.7 0.00 0.04 0.00 1011.7
20260906092603 0 335 0.0 1.7 0.00 0.04 0.00 1011.7
20260906092501 0 335 0.0 1.7 0.00 0.04 0.00 1011.6
20260906092423 0 335 0.0 0.9 0.00 0.04 0.00 1011.7
20260906092259 0 335 0.0 0.0 0.00 0.04 0.00 1011.6
20260906092200 0 335 0.0 0.0 0.00 0.04 0.00 1011.6
20260906092058 0 335 0.0 0.9 0.00 0.04 0.00 1011.6
20260906091958 0 335 0.0 0.9 0.00 0.04 0.00 1011.7
20260906091856 0 335 0.0 0.9 0.00 0.04 0.00 1011.7
20260906091756 0 335 0.0 0.9 0.00 0.04 0.00 1011.6
20260906091654 0 335 0.0 0.9 0.00 0.04 0.00 1011.5
20260906091553 0 335 0.0 0.9 0.00 0.04 0.00 1011.7
20260906091453 0 335 0.0 0.9 0.00 0.04 0.00 1011.6
20260906091351 0 335 0.0 0.9 0.00 0.04 0.00 1011.6
20260906091250 0 335 0.0 0.9 0.00 0.04 0.00 1011.5
20260906091150 0 335 0.0 0.9 0.00 0.04 0.00 1011.5
20260906091049 0 335 0.0 0.9 0.00 0.04 0.00 1011.5
20260906090949 0 335 0.0 0.0 0.00 0.04 0.00 1011.5
20260906090847 0 335 0.0 0.0 0.00 0.04 0.00 1011.5
20260906090747 0 335 0.0 0.0 0.00 0.04 0.00 1011.5
20260906090647 0 335 0.0 0.0 0.00 0.04 0.00 1011.4
20260906090545 0 335 0.0 0.0 0.00 0.04 0.00 1011.5
20260906090446 0 335 0.0 0.0 0.00 0.04 0.00 1011.4
20260906090344 0 335 0.0 0.0 0.00 0.04 0.00 1011.3
20260906090242 0 335 0.0 0.0 0.00 0.04 0.00 1011.4
20260906090145 0 335 0.0 0.0 0.00 0.04 0.00 1011.3
20260906090041 0 335 0.0 0.0 0.00 0.04 0.00 1011.3
20260906085941 0 335 0.0 0.0 0.00 0.04 0.00 1011.3
20260906085839 0 335 0.0 0.0 0.00 0.04 0.00 1011.3
20260906085739 0 335 0.0 0.0 0.00 0.04 0.00 1011.3
20260906085639 0 335 0.0 0.0 0.00 0.04 0.00 1011.3
20260906085538 0 335 0.0 0.0 0.00 0.04 0.00 1011.3
20260906085437 0 335 0.0 0.0 0.00 0.04 0.00 1011.3
20260906085335 0 335 0.0 0.0 0.00 0.04 0.00 1011.3
20260906085235 0 335 0.0 0.0 0.00 0.04 0.00 1011.3
20260906085136 0 335 0.0 0.0 0.00 0.04 0.00 1011.3
20260906085034 0 335 0.0 0.0 0.00 0.04 0.00 1011.2
20260906084933 0 335 0.0 0.0 0.00 0.04 0.00 1011.3
20260906084832 0 335 0.0 0.0 0.00 0.04 0.00 1011.1
20260906084731 0 335 0.0 0.0 0.00 0.04 0.00 1011.2
20260906084632 0 335 0.0 0.0 0.00 0.04 0.00 1011.1
20260906084528 0 335 0.0 0.0 0.00 0.04 0.00 1011.2
20260906084430 0 335 0.0 0.0 0.00 0.04 0.00 1011.2
20260906084328 0 335 0.0 0.0 0.00 0.04 0.00 1011.1
20260906084226 0 335 0.0 0.9 0.00 0.04 0.00 1011.2
20260906084127 0 335 0.0 1.7 0.00 0.04 0.00 1011.3
20260906084026 0 335 0.0 1.7 0.00 0.04 0.00 1011.3
20260906083925 0 335 0.0 1.7 0.00 0.04 0.00 1011.1
20260906083824 0 335 0.0 1.7 0.00 0.04 0.00 1011.3
20260906083723 0 335 0.0 1.7 0.00 0.04 0.00 1011.2
20260906083624 0 335 0.0 1.7 0.00 0.04 0.00 1011.2
20260906083522 0 335 0.0 1.7 0.00 0.04 0.00 1011.3
20260906083428 0 335 0.0 1.7 0.00 0.04 0.00 1011.2
20260906083414 0 335 0.0 1.7 0.00 0.04 0.00 1011.2
20260906083219 0 335 0.0 1.7 0.00 0.04 0.00 1011.3
20260906083120 0 335 0.0 1.7 0.00 0.04 0.00 1011.2
20260906083017 0 335 0.0 1.7 0.00 0.04 0.00 1011.3
20260906082917 0 335 0.0 1.7 0.00 0.04 0.00 1011.2
20260906082816 0 335 0.0 1.7 0.00 0.04 0.00 1011.2
20260906082717 0 335 0.0 1.7 0.00 0.04 0.00 1011.3
20260906082616 0 335 0.0 1.7 0.00 0.04 0.00 1011.3
20260906082514 0 335 0.0 1.7 0.00 0.04 0.00 1011.4
20260906082413 0 335 0.0 1.7 0.00 0.04 0.00 1011.3
20260906082211 0 335 0.0 0.0 0.00 0.04 0.00 1011.2
20260906082111 0 335 0.0 0.0 0.00 0.04 0.00 1011.1
20260906082010 0 335 0.0 0.0 0.00 0.04 0.00 1011.1
20260906081907 0 335 0.0 0.0 0.00 0.04 0.00 1011.1
20260906081707 0 335 0.0 0.0 0.00 0.04 0.00 1011.1
20260906081608 0 335 0.0 0.0 0.00 0.04 0.00 1011.0
20260906081508 0 335 0.0 0.0 0.00 0.04 0.00 1011.0
20260906081407 0 335 0.0 0.0 0.00 0.04 0.00 1011.1
20260906081207 0 335 0.0 0.0 0.00 0.04 0.00 1011.0
20260906081106 0 335 0.0 0.0 0.00 0.04 0.00 1011.0
20260906080907 0 335 0.0 0.0 0.00 0.04 0.00 1011.2
20260906080705 0 335 0.0 0.9 0.00 0.04 0.00 1011.2
20260906080603 0 335 0.0 0.9 0.00 0.04 0.00 1011.3
20260906080503 0 335 0.0 0.9 0.00 0.04 0.00 1011.3
20260906080403 0 335 0.0 1.7 0.00 0.04 0.00 1011.3
20260906080302 0 335 0.0 1.7 0.00 0.04 0.00 1011.2
20260906080202 0 335 0.0 1.7 0.00 0.04 0.00 1011.3
20260906080100 0 335 0.0 1.7 0.00 0.04 0.00 1011.3
20260906075959 0 335 0.0 1.7 0.00 0.04 0.00 1011.3
20260906075921 0 335 0.0 1.7 0.00 0.04 0.00 1011.3
20260906075757 0 335 0.0 1.7 0.00 0.04 0.00 1011.2
20260906075658 0 335 0.0 1.7 0.00 0.04 0.00 1011.3
20260906075555 0 335 0.0 1.7 0.00 0.04 0.00 1011.2
20260906075456 0 335 0.0 1.7 0.00 0.04 0.00 1011.2
20260906075355 0 335 0.0 0.9 0.00 0.04 0.00 1011.3
20260906075254 0 335 0.0 0.9 0.00 0.04 0.00 1011.2
20260906075154 0 335 0.0 0.9 0.00 0.04 0.00 1011.3
20260906075052 0 335 0.0 0.0 0.00 0.04 0.00 1011.3
20260906074950 0 335 0.0 0.0 0.00 0.04 0.00 1011.1
20260906074851 0 335 0.0 0.0 0.00 0.04 0.00 1011.1
20260906074750 0 335 0.0 0.0 0.00 0.04 0.00 1011.1
20260906074646 0 335 0.0 0.0 0.00 0.04 0.00 1011.0
20260906074547 0 335 0.0 0.0 0.00 0.04 0.00 1011.1
20260906074445 0 335 0.0 0.0 0.00 0.04 0.00 1011.0
20260906074345 0 335 0.0 0.0 0.00 0.04 0.00 1011.0
20260906074243 0 335 0.0 0.0 0.00 0.04 0.00 1011.0
20260906074145 0 335 0.0 0.0 0.00 0.04 0.00 1011.0
20260906074041 0 335 0.0 0.9 0.00 0.04 0.00 1011.0
20260906073942 0 335 0.0 0.9 0.00 0.04 0.00 1011.1
20260906073915 0 335 0.0 0.9 0.00 0.04 0.00 1011.1
20260906073740 0 335 0.0 0.9 0.00 0.04 0.00 1011.2
20260906073639 0 335 0.0 0.9 0.00 0.04 0.00 1011.2
20260906073538 0 335 0.0 0.9 0.00 0.04 0.00 1011.2
20260906073437 0 335 0.0 0.9 0.00 0.04 0.00 1011.2
20260906073338 0 335 0.0 0.9 0.00 0.04 0.00 1011.2
20260906073235 0 335 0.0 0.9 0.00 0.04 0.00 1011.3
20260906073135 0 335 0.0 0.9 0.00 0.04 0.00 1011.1
20260906073033 0 335 0.0 0.9 0.00 0.04 0.00 1011.2
20260906072934 0 335 0.0 0.9 0.00 0.04 0.00 1011.1
20260906072833 0 335 0.0 1.7 0.00 0.04 0.00 1011.2
20260906072731 0 335 0.0 1.7 0.00 0.04 0.00 1011.1
20260906072630 0 335 0.0 1.7 0.00 0.04 0.00 1011.1
20260906072530 0 335 0.0 1.7 0.00 0.04 0.00 1011.1
20260906072430 0 335 0.0 1.7 0.00 0.04 0.00 1011.1
20260906072329 0 335 0.0 1.7 0.00 0.04 0.00 1011.0
20260906072228 0 335 0.0 1.7 0.00 0.04 0.00 1011.0
20260906072127 0 335 0.0 1.7 0.00 0.04 0.00 1011.0
20260906072026 0 335 0.0 1.7 0.00 0.04 0.00 1011.1
20260906071924 0 335 0.0 1.7 0.00 0.04 0.00 1011.0
20260906071824 0 335 0.0 1.7 0.00 0.04 0.00 1011.0
20260906071726 0 335 0.0 1.7 0.00 0.04 0.00 1011.0
20260906071627 0 335 0.9 1.7 0.00 0.04 0.00 1011.0
20260906071524 0 335 0.9 1.7 0.00 0.04 0.00 1011.0
20260906071425 0 335 0.9 1.7 0.00 0.04 0.00 1011.0
20260906071326 0 335 0.9 1.7 0.00 0.04 0.00 1011.0
20260906071223 0 335 0.9 1.7 0.00 0.04 0.00 1011.1
20260906071124 0 335 0.9 1.7 0.00 0.04 0.00 1011.1
20260906071023 0 335 0.0 1.7 0.00 0.04 0.00 1011.0
20260906070923 0 335 0.0 1.7 0.00 0.04 0.00 1011.0
20260906070909 0 335 0.0 1.7 0.00 0.04 0.00 1011.0
20260906070724 0 335 0.0 1.7 0.00 0.04 0.00 1011.0
20260906070624 0 335 0.0 1.7 0.00 0.04 0.00 1011.1
20260906070524 0 335 0.0 1.7 0.00 0.04 0.00 1011.1
20260906070423 0 335 0.0 1.7 0.00 0.04 0.00 1011.0
20260906070409 0 335 0.0 1.7 0.00 0.04 0.00 1011.0
20260906070223 0 335 0.0 1.7 0.00 0.04 0.00 1011.0
20260906070124 0 335 0.9 1.7 0.00 0.04 0.00 1011.1
20260906070025 0 335 0.9 1.7 0.00 0.04 0.00 1011.2
20260906065923 0 335 0.9 2.6 0.00 0.04 0.00 1011.2
20260906065822 0 335 0.9 2.6 0.00 0.04 0.00 1011.2
20260906065723 0 335 0.9 2.6 0.00 0.04 0.00 1011.3
20260906065623 0 335 0.9 2.6 0.00 0.04 0.00 1011.3
20260906065524 0 335 0.9 2.6 0.00 0.04 0.00 1011.3
20260906065424 0 335 0.9 2.6 0.00 0.04 0.00 1011.4
20260906065324 0 335 0.9 2.6 0.00 0.04 0.00 1011.4
20260906065224 0 335 0.9 2.6 0.00 0.04 0.00 1011.4
20260906065122 0 335 0.9 2.6 0.00 0.04 0.00 1011.4
20260906065024 0 335 0.0 2.6 0.00 0.04 0.00 1011.4
20260906064922 0 335 0.0 1.7 0.00 0.04 0.00 1011.4
20260906064823 0 335 0.0 1.7 0.00 0.04 0.00 1011.4
20260906064722 0 335 0.0 0.9 0.00 0.04 0.00 1011.4
20260906064623 0 335 0.0 0.0 0.00 0.04 0.00 1011.3
20260906064523 0 335 0.0 0.0 0.00 0.04 0.00 1011.4
20260906064424 0 335 0.0 0.0 0.00 0.04 0.00 1011.4
20260906064323 0 335 0.0 0.0 0.00 0.04 0.00 1011.4
20260906064223 0 335 0.0 0.0 0.00 0.04 0.00 1011.4
20260906064122 0 335 0.0 0.0 0.00 0.04 0.00 1011.5
20260906064024 0 335 0.0 0.0 0.00 0.04 0.00 1011.5
20260906063925 0 335 0.0 0.0 0.00 0.04 0.00 1011.5
20260906063824 0 335 0.0 0.0 0.00 0.04 0.00 1011.6
20260906063723 0 335 0.0 0.9 0.00 0.04 0.00 1011.6
20260906063624 0 335 0.0 1.7 0.00 0.04 0.00 1011.6
20260906063523 0 335 0.0 1.7 0.00 0.04 0.00 1011.6
20260906063424 0 335 0.0 1.7 0.00 0.04 0.00 1011.6
20260906063323 0 335 0.0 1.7 0.00 0.04 0.00 1011.6
20260906063223 0 335 0.0 1.7 0.00 0.04 0.00 1011.6
20260906063124 0 335 0.0 1.7 0.00 0.04 0.00 1011.6
20260906063023 0 335 0.0 2.6 0.00 0.04 0.00 1011.7
20260906062924 0 335 0.0 2.6 0.00 0.04 0.00 1011.6
20260906062823 0 335 0.0 2.6 0.00 0.04 0.00 1011.7
20260906062724 0 335 0.0 2.6 0.00 0.04 0.00 1011.6
20260906062624 0 335 0.0 3.5 0.00 0.04 0.00 1011.7
20260906062524 0 335 0.0 3.5 0.00 0.04 0.00 1011.7
20260906062424 0 335 0.0 3.5 0.00 0.04 0.00 1011.7
20260906062323 0 335 0.0 3.5 0.00 0.04 0.00 1011.7
20260906062225 0 335 0.9 3.5 0.00 0.04 0.00 1011.7
20260906062122 0 335 0.9 3.5 0.00 0.04 0.00 1011.8
20260906062024 0 335 0.9 3.5 0.00 0.04 0.00 1011.7
20260906061922 0 335 0.9 4.3 0.00 0.04 0.00 1011.7
20260906061822 0 335 0.9 4.3 0.00 0.04 0.00 1011.7
20260906061724 0 335 0.9 4.3 0.00 0.04 0.00 1011.7
20260906061623 0 335 0.9 4.3 0.00 0.04 0.00 1011.7
20260906061522 0 335 0.9 4.3 0.00 0.04 0.00 1011.7
20260906061423 0 335 0.9 4.3 0.00 0.04 0.00 1011.7
20260906061323 0 335 0.9 4.3 0.00 0.04 0.00 1011.7
20260906061224 0 335 0.9 4.3 0.00 0.04 0.00 1011.7
20260906061123 0 335 0.9 4.3 0.00 0.04 0.00 1011.7
20260906061024 0 335 0.9 4.3 0.00 0.04 0.00 1011.7
20260906060923 0 323 0.9 3.5 0.00 0.04 0.00 1011.7
20260906060824 0 323 0.9 3.5 0.00 0.04 0.00 1011.7
20260906060723 0 323 0.9 3.5 0.00 0.04 0.00 1011.8
20260906060623 0 323 0.9 3.5 0.00 0.04 0.00 1011.8
20260906060522 0 323 0.9 3.5 0.00 0.04 0.00 1011.7
20260906060424 0 323 0.9 3.5 0.00 0.04 0.00 1011.7
20260906060323 0 323 0.9 3.5 0.00 0.04 0.00 1011.7
20260906060222 0 323 0.9 3.5 0.00 0.04 0.00 1011.7
20260906060123 0 323 0.0 3.5 0.00 0.04 0.00 1011.7
20260906060024 0 323 0.0 2.6 0.00 0.04 0.00 1011.7
20260906055922 0 323 0.0 2.6 0.00 0.04 0.00 1011.8
20260906055824 0 323 0.0 1.7 0.00 0.04 0.00 1011.9
20260906055721 0 323 0.0 2.6 0.00 0.04 0.00 1011.9
20260906055621 0 323 0.0 2.6 0.00 0.04 0.00 1011.9
20260906055520 0 323 0.0 2.6 0.00 0.04 0.00 1011.9
20260906055423 0 323 0.0 2.6 0.00 0.04 0.00 1011.9
20260906055407 0 323 0.9 2.6 0.00 0.04 0.00 1011.9
20260906055221 0 323 0.9 2.6 0.00 0.04 0.00 1011.9
20260906055120 0 323 0.9 2.6 0.00 0.04 0.00 1011.8
20260906055022 0 323 0.9 2.6 0.00 0.04 0.00 1011.8
20260906054922 0 323 0.9 2.6 0.00 0.04 0.00 1011.8
20260906054821 0 323 0.9 2.6 0.00 0.04 0.00 1011.8
20260906054722 0 323 0.9 2.6 0.00 0.04 0.00 1011.8
20260906054622 0 323 0.9 2.6 0.00 0.04 0.00 1011.8
20260906054521 0 323 0.9 2.6 0.00 0.04 0.00 1011.8
20260906054419 0 323 0.9 2.6 0.00 0.04 0.00 1011.8
20260906054320 0 323 0.9 2.6 0.00 0.04 0.00 1011.8
20260906054221 0 323 0.9 3.5 0.00 0.04 0.00 1011.9
20260906054117 0 323 0.9 3.5 0.00 0.04 0.00 1011.8
20260906054017 0 323 0.9 4.3 0.00 0.04 0.00 1012.0
20260906053916 0 323 0.9 4.3 0.00 0.04 0.00 1011.9
20260906053817 0 323 0.9 4.3 0.00 0.04 0.00 1012.0
20260906053716 0 323 0.9 4.3 0.00 0.04 0.00 1011.9
20260906053614 0 323 0.9 4.3 0.00 0.04 0.00 1011.8
20260906053512 0 323 0.9 4.3 0.00 0.04 0.00 1011.9
20260906053412 0 323 0.9 4.3 0.00 0.04 0.00 1011.9
20260906053312 0 323 0.9 4.3 0.00 0.04 0.00 1011.9
20260906053210 0 323 0.9 4.3 0.00 0.04 0.00 1011.9
20260906053109 0 323 0.9 4.3 0.00 0.04 0.00 1012.0
20260906053008 0 308 0.9 4.3 0.00 0.04 0.00 1012.0
20260906052907 0 308 0.9 4.3 0.00 0.04 0.00 1012.0
20260906052807 0 308 0.9 4.3 0.00 0.04 0.00 1012.0
20260906052705 0 308 0.9 4.3 0.00 0.04 0.00 1012.0
20260906052604 0 308 0.9 4.3 0.00 0.04 0.00 1012.0
20260906052505 0 308 0.9 4.3 0.00 0.04 0.00 1012.0
20260906052406 0 308 0.9 4.3 0.00 0.04 0.00 1012.0
20260906052306 0 308 0.9 4.3 0.00 0.04 0.00 1012.1
20260906052204 0 308 0.9 4.3 0.00 0.04 0.00 1012.2
20260906052105 0 302 0.9 2.6 0.00 0.04 0.00 1012.1
20260906052005 0 302 0.9 2.6 0.00 0.04 0.00 1012.1
20260906051903 0 302 0.9 2.6 0.00 0.04 0.00 1012.0
20260906051802 0 302 0.9 2.6 0.00 0.04 0.00 1012.1
20260906051704 0 302 0.9 2.6 0.00 0.04 0.00 1012.1
20260906051604 0 302 0.9 2.6 0.00 0.04 0.00 1012.1
20260906051504 0 302 0.9 2.6 0.00 0.04 0.00 1012.1
20260906051402 0 302 0.9 2.6 0.00 0.04 0.00 1012.0
20260906051303 0 302 0.9 2.6 0.00 0.04 0.00 1012.1
20260906051202 0 302 0.9 2.6 0.00 0.04 0.00 1012.1
20260906051104 0 302 0.9 2.6 0.00 0.04 0.00 1012.0
20260906051003 0 302 0.9 2.6 0.00 0.04 0.00 1012.1
20260906050904 0 302 1.7 2.6 0.00 0.04 0.00 1011.9
20260906050802 0 302 1.7 2.6 0.00 0.04 0.00 1012.0
20260906050701 0 302 1.7 2.6 0.00 0.04 0.00 1011.9
20260906050601 0 302 1.7 2.6 0.00 0.04 0.00 1011.9
20260906050459 0 302 1.7 2.6 0.00 0.04 0.00 1011.8
20260906050358 0 302 1.7 2.6 0.00 0.04 0.00 1011.9
20260906050157 0 302 1.7 4.3 0.00 0.04 0.00 1011.9
20260906050056 0 302 1.7 4.3 0.00 0.04 0.00 1011.9
20260906045954 0 302 1.7 4.3 0.00 0.04 0.00 1011.9
20260906045855 0 302 1.7 4.3 0.00 0.04 0.00 1011.9
20260906045652 0 302 1.7 5.2 0.00 0.04 0.00 1011.8
20260906045552 0 302 1.7 5.2 0.00 0.04 0.00 1011.9
20260906045449 0 302 1.7 5.2 0.00 0.04 0.00 1011.8
20260906045349 0 302 1.7 5.2 0.00 0.04 0.00 1011.8
20260906045247 0 299 1.7 5.2 0.00 0.04 0.00 1011.9
20260906045148 0 286 1.7 5.2 0.00 0.04 0.00 1011.9
20260906045046 0 286 1.7 5.2 0.00 0.04 0.00 1011.9
20260906044945 0 286 1.7 5.2 0.00 0.04 0.00 1012.0
20260906044907 0 286 1.7 5.2 0.00 0.04 0.00 1011.9
20260906044745 0 286 1.7 3.5 0.00 0.04 0.00 1012.0
20260906044644 0 286 1.7 3.5 0.00 0.04 0.00 1012.1
20260906044544 0 286 1.7 3.5 0.00 0.04 0.00 1012.0
20260906044442 0 286 1.7 3.5 0.00 0.04 0.00 1012.0
20260906044341 0 286 1.7 3.5 0.00 0.04 0.00 1012.0
20260906044241 0 286 1.7 3.5 0.00 0.04 0.00 1011.9
20260906044140 0 286 1.7 3.5 0.00 0.04 0.00 1011.9
20260906044039 0 286 1.7 3.5 0.00 0.04 0.00 1011.9
20260906043938 0 286 1.7 3.5 0.00 0.04 0.00 1011.9
20260906043904 0 286 1.7 3.5 0.00 0.04 0.00 1012.0
20260906043738 0 286 1.7 3.5 0.00 0.04 0.00 1012.0
20260906043636 0 286 1.7 3.5 0.00 0.04 0.00 1011.9
20260906043536 0 286 1.7 3.5 0.00 0.04 0.00 1011.8
20260906043434 0 286 1.7 3.5 0.00 0.04 0.00 1011.8
20260906043332 0 286 1.7 3.5 0.00 0.04 0.00 1011.8
20260906043232 0 286 1.7 3.5 0.00 0.04 0.00 1011.7
20260906043134 0 286 0.9 3.5 0.00 0.04 0.00 1011.8
20260906043032 0 286 0.9 3.5 0.00 0.04 0.00 1011.8
20260906042931 0 286 0.9 2.6 0.00 0.04 0.00 1011.8
20260906042832 0 286 0.9 2.6 0.00 0.04 0.00 1011.8
20260906042728 0 286 0.9 2.6 0.00 0.04 0.00 1011.8
20260906042629 0 286 0.9 3.5 0.00 0.04 0.00 1011.8
20260906042529 0 286 0.9 5.2 0.00 0.04 0.00 1011.8
20260906042426 0 286 0.9 5.2 0.00 0.04 0.00 1011.7
20260906042327 0 286 0.9 5.2 0.00 0.04 0.00 1011.8
20260906042224 0 286 0.9 5.2 0.00 0.04 0.00 1011.8
20260906042125 0 286 1.7 5.2 0.00 0.04 0.00 1011.8
20260906042024 0 286 1.7 5.2 0.00 0.04 0.00 1011.8
20260906041926 0 286 1.7 5.2 0.00 0.04 0.00 1011.8
20260906041826 0 286 1.7 5.2 0.00 0.04 0.00 1011.6
20260906041724 0 286 1.7 5.2 0.00 0.04 0.00 1011.7
20260906041625 0 286 1.7 5.2 0.00 0.04 0.00 1011.7
20260906041525 0 286 0.9 3.5 0.00 0.04 0.00 1011.7
20260906041426 0 286 0.9 3.5 0.00 0.04 0.00 1011.6
20260906041323 0 286 0.9 3.5 0.00 0.04 0.00 1011.6
20260906041223 0 268 0.9 3.5 0.00 0.04 0.00 1011.7
20260906041124 0 268 0.9 3.5 0.00 0.04 0.00 1011.6
20260906041021 0 268 0.9 3.5 0.00 0.04 0.00 1011.6
20260906040920 0 268 0.9 3.5 0.00 0.04 0.00 1011.6
20260906040822 0 244 0.9 2.6 0.00 0.04 0.00 1011.6
20260906040719 0 244 0.9 2.6 0.00 0.04 0.00 1011.5
20260906040620 0 244 0.9 2.6 0.00 0.04 0.00 1011.5
20260906040516 0 244 0.9 2.6 0.00 0.04 0.00 1011.6
20260906040418 0 244 0.9 3.5 0.00 0.04 0.00 1011.5
20260906040316 0 244 0.9 3.5 0.00 0.04 0.00 1011.5
20260906040216 0 244 0.9 3.5 0.00 0.04 0.00 1011.5
20260906040114 0 244 0.9 3.5 0.00 0.04 0.00 1011.5
20260906040012 0 244 0.9 3.5 0.00 0.04 0.00 1011.5
20260906035913 0 244 0.9 3.5 0.00 0.04 0.04 1011.4
20260906035854 0 244 0.9 3.5 0.00 0.04 0.04 1011.3
20260906035713 0 244 0.9 3.5 0.00 0.04 0.04 1011.4
20260906035612 0 244 0.9 3.5 0.00 0.04 0.04 1011.3
20260906035511 0 244 0.0 3.5 0.00 0.04 0.04 1011.4
20260906035410 0 235 0.0 2.6 0.00 0.04 0.04 1011.3
20260906035353 0 235 0.0 2.6 0.00 0.04 0.04 1011.3
20260906035209 0 235 0.0 2.6 0.00 0.04 0.04 1011.3
20260906035107 0 235 0.0 2.6 0.00 0.04 0.04 1011.3
20260906035008 0 235 0.9 2.6 0.00 0.04 0.04 1011.3
20260906034907 0 235 0.9 3.5 0.00 0.04 0.04 1011.3
20260906034805 0 235 0.9 3.5 0.00 0.04 0.04 1011.3
20260906034705 0 235 0.9 3.5 0.00 0.04 0.04 1011.4
20260906034604 0 235 0.9 3.5 0.00 0.04 0.04 1011.4
20260906034503 0 235 0.9 3.5 0.00 0.04 0.04 1011.3
20260906034403 0 218 1.7 3.5 0.00 0.04 0.04 1011.4
20260906034304 0 218 1.7 3.5 0.00 0.04 0.04 1011.4
20260906034202 0 218 1.7 3.5 0.00 0.04 0.04 1011.5
20260906034102 0 218 1.7 3.5 0.00 0.04 0.04 1011.5
20260906033959 0 218 1.7 3.5 0.00 0.04 0.04 1011.4
20260906033901 0 218 1.7 3.5 0.00 0.04 0.04 1011.5
20260906033701 0 218 1.7 3.5 0.00 0.04 0.04 1011.5
20260906033559 0 218 1.7 3.5 0.00 0.04 0.04 1011.4
20260906033501 0 218 1.7 3.5 0.00 0.04 0.04 1011.4
20260906033400 0 218 1.7 3.5 0.00 0.04 0.04 1011.4
20260906033159 0 218 1.7 3.5 0.00 0.04 0.04 1011.5
20260906033059 0 218 1.7 3.5 0.00 0.04 0.04 1011.5
20260906032955 0 218 1.7 3.5 0.00 0.04 0.04 1011.4
20260906032855 0 218 2.6 3.5 0.00 0.04 0.04 1011.5
20260906032653 0 218 2.6 3.5 0.00 0.04 0.04 1011.5
20260906032553 0 218 2.6 3.5 0.00 0.04 0.04 1011.4
20260906032453 0 218 2.6 3.5 0.00 0.04 0.04 1011.4
20260906032352 0 218 2.6 3.5 0.00 0.04 0.04 1011.5
20260906032150 0 218 1.7 4.3 0.00 0.04 0.04 1011.5
20260906032051 0 218 1.7 4.3 0.00 0.04 0.04 1011.4
20260906031947 0 218 1.7 4.3 0.00 0.04 0.04 1011.5
20260906031847 0 218 1.7 4.3 0.00 0.04 0.04 1011.5
20260906031647 0 218 1.7 4.3 0.00 0.04 0.04 1011.6
20260906031543 0 217 2.6 4.3 0.00 0.04 0.04 1011.6
20260906031444 0 217 2.6 4.3 0.00 0.04 0.04 1011.7
20260906031344 0 217 2.6 4.3 0.00 0.04 0.04 1011.6
20260906031141 0 217 2.6 5.2 0.00 0.04 0.04 1011.7
20260906031041 0 217 2.6 5.2 0.00 0.04 0.04 1011.7
20260906030939 0 217 2.6 5.2 0.00 0.04 0.04 1011.6
20260906030840 0 217 2.6 5.2 0.00 0.04 0.04 1011.7
20260906030739 0 217 1.7 5.2 0.00 0.04 0.04 1011.7
20260906030637 0 217 1.7 5.2 0.00 0.04 0.04 1011.7
20260906030537 0 217 1.7 5.2 0.00 0.04 0.04 1011.8
20260906030437 0 217 1.7 5.2 0.00 0.04 0.04 1011.8
20260906030339 0 217 0.9 5.2 0.00 0.04 0.04 1011.8
20260906030238 0 217 0.9 5.2 0.00 0.04 0.04 1011.8
20260906030137 0 223 0.9 2.6 0.00 0.04 0.04 1011.9
20260906030039 0 223 0.9 2.6 0.00 0.04 0.04 1012.0
20260906025936 0 223 0.9 2.6 0.00 0.04 0.04 1012.0
20260906025833 0 223 0.9 2.6 0.00 0.04 0.04 1012.0
20260906025734 0 223 0.9 4.3 0.00 0.04 0.04 1012.0
20260906025633 0 223 1.7 4.3 0.00 0.04 0.04 1012.0
20260906025535 0 223 1.7 4.3 0.00 0.04 0.04 1011.9
20260906025432 0 223 1.7 4.3 0.00 0.04 0.04 1012.0
20260906025329 0 223 1.7 4.3 0.00 0.04 0.04 1012.0
20260906025229 0 223 1.7 4.3 0.00 0.04 0.04 1012.0
20260906025129 0 223 1.7 4.3 0.00 0.04 0.04 1012.0
20260906025031 0 223 1.7 4.3 0.00 0.04 0.04 1012.0
20260906024931 0 223 1.7 4.3 0.00 0.04 0.04 1012.0
20260906024829 0 224 1.7 4.3 0.00 0.04 0.04 1012.0
20260906024730 0 224 1.7 6.1 0.00 0.04 0.04 1012.0
20260906024629 0 224 2.6 6.1 0.00 0.04 0.04 1012.1
20260906024529 0 225 1.7 6.1 0.00 0.04 0.04 1012.1
20260906024428 0 225 2.6 6.1 0.00 0.04 0.04 1012.0
20260906024327 0 225 2.6 6.1 0.00 0.04 0.04 1012.1
20260906024229 0 225 2.6 6.1 0.00 0.04 0.04 1012.1
20260906024127 0 224 2.6 6.1 0.00 0.04 0.04 1012.1
20260906024029 0 224 2.6 6.1 0.00 0.04 0.04 1012.1
20260906023927 0 224 2.6 6.1 0.00 0.04 0.04 1012.1
20260906023828 0 224 2.6 6.1 0.00 0.04 0.04 1012.2
20260906023726 0 223 2.6 5.2 0.00 0.04 0.04 1012.1
20260906023623 0 228 2.6 5.2 0.00 0.04 0.04 1012.2
20260906023523 0 229 2.6 5.2 0.00 0.04 0.04 1012.2
20260906023423 0 228 2.6 5.2 0.00 0.04 0.04 1012.2
20260906023356 0 231 1.7 4.3 0.00 0.04 0.04 1012.2
20260906023224 0 231 1.7 4.3 0.00 0.04 0.04 1012.2
20260906023125 0 231 1.7 4.3 0.00 0.04 0.04 1012.3
20260906023024 0 231 1.7 4.3 0.00 0.04 0.04 1012.3
20260906022923 0 231 1.7 4.3 0.00 0.04 0.04 1012.3
20260906022824 0 232 1.7 4.3 0.00 0.04 0.04 1012.4
20260906022723 0 232 1.7 4.3 0.00 0.04 0.04 1012.4
20260906022623 0 232 1.7 4.3 0.00 0.04 0.04 1012.4
20260906022524 0 232 1.7 4.3 0.00 0.04 0.04 1012.4
20260906022421 0 232 1.7 4.3 0.00 0.04 0.04 1012.4
20260906022323 0 233 1.7 5.2 0.00 0.04 0.04 1012.4
20260906022221 0 233 1.7 5.2 0.00 0.04 0.04 1012.4
20260906022121 0 234 1.7 5.2 0.00 0.04 0.04 1012.4
20260906022019 0 234 1.7 5.2 0.00 0.04 0.04 1012.4
20260906021920 0 234 1.7 5.2 0.00 0.04 0.04 1012.4
20260906021817 0 212 1.7 5.2 0.00 0.04 0.04 1012.4
20260906021719 0 217 1.7 5.2 0.00 0.04 0.04 1012.4
20260906021618 0 217 2.6 5.2 0.00 0.04 0.04 1012.3
20260906021515 0 216 1.7 5.2 0.00 0.04 0.04 1012.4
20260906021413 0 216 1.7 5.2 0.00 0.04 0.04 1012.4
20260906021314 0 217 1.7 5.2 0.00 0.04 0.04 1012.4
20260906021213 0 206 1.7 5.2 0.00 0.04 0.04 1012.4
20260906021115 0 162 1.7 5.2 0.00 0.04 0.04 1012.4
20260906021014 0 158 1.7 5.2 0.00 0.04 0.04 1012.4
20260906020913 0 159 1.7 5.2 0.00 0.04 0.04 1012.5
20260906020814 0 146 1.7 6.1 0.00 0.04 0.04 1012.5
20260906020713 0 146 1.7 6.1 0.00 0.04 0.04 1012.5
20260906020613 0 223 1.7 6.1 0.00 0.04 0.04 1012.4
20260906020513 0 223 1.7 6.1 0.00 0.04 0.04 1012.5
20260906020409 0 223 1.7 6.1 0.00 0.04 0.04 1012.5
20260906020311 0 223 1.7 6.1 0.00 0.04 0.04 1012.5
20260906020209 0 223 1.7 6.1 0.00 0.04 0.04 1012.5
20260906020110 0 223 1.7 6.1 0.00 0.04 0.04 1012.6
20260906020008 0 223 1.7 6.1 0.00 0.04 0.04 1012.6
20260906015908 0 223 1.7 6.1 0.00 0.04 0.04 1012.6
20260906015807 0 209 1.7 4.3 0.00 0.04 0.04 1012.6
20260906015706 0 208 1.7 4.3 0.00 0.04 0.04 1012.6
20260906015605 0 192 1.7 4.3 0.00 0.04 0.04 1012.5
20260906015503 0 192 1.7 4.3 0.00 0.04 0.04 1012.5
20260906015405 0 178 1.7 4.3 0.00 0.04 0.04 1012.5
20260906015306 0 175 1.7 4.3 0.00 0.04 0.04 1012.5
20260906015205 0 175 1.7 4.3 0.00 0.04 0.04 1012.5
20260906015103 0 223 1.7 4.3 0.00 0.04 0.04 1012.3
20260906015003 0 200 1.7 5.2 0.00 0.04 0.04 1012.4
20260906014804 0 151 1.7 5.2 0.00 0.04 0.04 1012.4
20260906014705 0 226 0.9 5.2 0.00 0.04 0.04 1012.5
20260906014603 0 171 0.9 5.2 0.00 0.04 0.04 1012.4
20260906014505 0 217 0.9 5.2 0.00 0.04 0.04 1012.4
20260906014402 0 217 0.9 5.2 0.00 0.04 0.04 1012.5
20260906014302 0 217 1.7 5.2 0.00 0.04 0.04 1012.5
20260906014201 0 217 1.7 5.2 0.00 0.04 0.04 1012.4
20260906014100 0 217 1.7 5.2 0.00 0.04 0.04 1012.4
20260906014000 0 217 1.7 5.2 0.00 0.04 0.04 1012.3
20260906013900 0 217 1.7 5.2 0.00 0.04 0.04 1012.4
20260906013657 0 217 2.6 5.2 0.00 0.04 0.04 1012.3
20260906013557 0 217 2.6 5.2 0.00 0.04 0.04 1012.3
20260906013457 0 217 2.6 5.2 0.00 0.04 0.04 1012.3
20260906013358 0 217 2.6 5.2 0.00 0.04 0.04 1012.3
20260906013257 0 75 2.6 5.2 0.00 0.04 0.04 1012.2
20260906013158 0 214 2.6 5.2 0.00 0.04 0.04 1012.2
20260906013057 0 214 1.7 5.2 0.00 0.04 0.04 1012.2
20260906012959 0 213 1.7 5.2 0.00 0.04 0.04 1012.2
20260906012857 0 177 1.7 5.2 0.00 0.04 0.04 1012.1
20260906012658 0 161 1.7 6.1 0.00 0.04 0.04 1012.1
20260906012555 0 188 1.7 6.1 0.00 0.04 0.04 1012.0
20260906012453 0 191 1.7 6.1 0.00 0.04 0.04 1012.1
20260906012353 0 119 1.7 6.1 0.00 0.04 0.04 1012.0
20260906012151 0 166 1.7 6.1 0.00 0.04 0.04 1012.0
20260906012050 0 236 0.9 7.8 0.00 0.04 0.04 1012.1
20260906011950 0 237 1.7 7.8 0.00 0.04 0.04 1012.0
20260906011847 0 239 1.7 7.8 0.00 0.04 0.04 1012.1
20260906011648 0 309 1.7 8.7 0.00 0.04 0.04 1012.1
20260906011546 0 182 1.7 8.7 0.00 0.04 0.04 1012.2
20260906011446 0 182 1.7 8.7 0.00 0.04 0.04 1012.1
20260906011346 0 148 1.7 8.7 0.00 0.04 0.04 1012.2
20260906011144 0 127 1.7 8.7 0.00 0.04 0.04 1012.2
20260906011045 0 138 1.7 8.7 0.01 0.04 0.04 1012.2
20260906010945 0 138 1.7 8.7 0.01 0.04 0.04 1012.2
20260906010901 0 155 1.7 8.7 0.01 0.04 0.04 1012.1
20260906010845 0 155 0.9 8.7 0.01 0.04 0.04 1012.2
20260906010642 0 142 0.9 7.0 0.01 0.04 0.04 1012.2
20260906010541 0 186 0.9 7.0 0.01 0.04 0.04 1012.3
20260906010441 0 187 1.7 7.0 0.01 0.04 0.04 1012.3
20260906010343 0 188 1.7 7.0 0.01 0.04 0.04 1012.3
20260906010140 0 117 0.9 6.1 0.01 0.04 0.04 1012.4
20260906010040 0 149 1.7 4.3 0.01 0.04 0.04 1012.3
20260906005939 0 149 1.7 4.3 0.01 0.04 0.04 1012.2
20260906005838 0 149 1.7 4.3 0.01 0.04 0.04 1012.0
20260906005636 0 150 1.7 4.3 0.01 0.04 0.04 1011.9
20260906005536 0 147 1.7 8.7 0.01 0.04 0.04 1011.8
20260906005435 0 174 1.7 8.7 0.01 0.04 0.04 1011.9
20260906005335 0 175 1.7 8.7 0.01 0.04 0.04 1011.9
20260906005233 0 186 0.9 8.7 0.01 0.04 0.04 1011.9
20260906005133 0 186 0.9 8.7 0.01 0.04 0.04 1012.0
20260906005033 0 182 0.9 8.7 0.02 0.04 0.04 1012.0
20260906004934 0 146 0.9 8.7 0.02 0.04 0.04 1012.0
20260906004833 0 144 0.9 8.7 0.02 0.04 0.04 1011.8
20260906004735 0 144 0.0 8.7 0.02 0.04 0.04 1011.9
20260906004631 0 136 0.0 8.7 0.02 0.04 0.04 1011.8
20260906004532 0 199 0.0 2.6 0.02 0.04 0.04 1011.9
20260906004432 0 205 0.0 1.7 0.02 0.04 0.04 1011.9
20260906004332 0 205 0.0 1.7 0.02 0.04 0.04 1011.8
20260906004231 0 205 0.9 4.3 0.02 0.04 0.04 1011.8
20260906004130 0 205 0.9 5.2 0.02 0.04 0.04 1011.8
20260906004030 0 205 1.7 5.2 0.02 0.04 0.04 1011.8
20260906003927 0 205 1.7 5.2 0.02 0.04 0.04 1011.7
20260906003828 0 205 1.7 5.2 0.02 0.04 0.04 1011.6
20260906003728 0 205 1.7 5.2 0.02 0.04 0.04 1011.5
20260906003625 0 205 1.7 5.2 0.02 0.04 0.04 1011.5
20260906003526 0 205 1.7 5.2 0.02 0.04 0.04 1011.6
20260906003423 0 205 1.7 5.2 0.02 0.04 0.04 1011.8
20260906003324 0 205 2.6 5.2 0.02 0.04 0.04 1012.0
20260906003225 0 205 1.7 5.2 0.02 0.04 0.04 1012.1
20260906003122 0 204 1.7 4.3 0.02 0.04 0.04 1012.1
20260906003019 0 166 0.9 4.3 0.02 0.04 0.04 1012.1
20260906002919 0 154 0.9 4.3 0.02 0.04 0.04 1012.0
20260906002821 0 154 0.9 4.3 0.02 0.04 0.04 1012.1
20260906002720 0 154 0.9 4.3 0.02 0.04 0.04 1012.1
20260906002618 0 154 0.9 3.5 0.03 0.04 0.04 1012.0
20260906002518 0 136 0.9 3.5 0.03 0.04 0.04 1012.0
20260906002417 0 126 0.0 2.6 0.03 0.04 0.04 1011.9
20260906002317 0 78 0.0 1.7 0.03 0.04 0.04 1011.9
20260906002215 0 77 0.0 0.9 0.03 0.04 0.04 1011.9
20260906002115 0 77 0.0 0.9 0.03 0.04 0.04 1011.8
20260906002016 0 77 0.0 0.9 0.03 0.04 0.04 1011.8
20260906001913 0 77 0.0 0.9 0.03 0.04 0.04 1011.6
20260906001814 0 77 0.0 0.9 0.03 0.04 0.04 1011.6
20260906001711 0 77 0.0 2.6 0.03 0.04 0.04 1011.6
20260906001612 0 77 0.0 2.6 0.03 0.04 0.04 1011.6
20260906001511 0 77 0.0 2.6 0.03 0.04 0.04 1011.6
20260906001412 0 77 0.9 3.5 0.03 0.04 0.04 1011.4
20260906001346 0 77 0.9 3.5 0.04 0.04 0.04 1011.3
20260906001211 0 77 0.9 3.5 0.04 0.04 0.04 1011.2
20260906001110 0 77 0.9 3.5 0.03 0.03 0.03 1011.1
20260906001012 0 77 0.9 3.5 0.03 0.03 0.03 1011.0
20260906000909 0 77 0.9 3.5 0.03 0.03 0.03 1011.0
20260906000807 0 77 0.9 3.5 0.03 0.03 0.03 1011.0
20260906000709 0 98 0.9 3.5 0.03 0.03 0.03 1011.0
20260906000607 0 98 1.7 3.5 0.03 0.03 0.03 1011.0
20260906000508 0 98 1.7 3.5 0.03 0.03 0.03 1010.9
20260906000407 0 88 0.9 5.2 0.03 0.03 0.03 1010.9
20260906000307 0 97 1.7 5.2 0.03 0.03 0.03 1010.8
20260906000208 0 96 1.7 5.2 0.03 0.03 0.03 1010.9
20260906000106 0 77 1.7 5.2 0.03 0.03 0.03 1010.9
20260906000008 0 102 0.9 7.8 0.03 0.03 0.03 1010.9
20260905235907 0 104 0.9 7.8 0.03 0.03 0.03 1010.9
20260905235808 0 104 0.9 7.8 0.03 0.03 0.03 1010.9
20260905235706 0 104 0.9 7.8 0.03 0.03 0.03 1011.1
20260905235604 0 103 0.9 7.8 0.03 0.03 0.03 1011.0
20260905235504 0 105 0.9 7.8 0.03 0.03 0.03 1011.1
20260905235402 0 99 0.9 7.8 0.03 0.03 0.03 1011.4
20260905235306 0 98 0.9 7.8 0.03 0.03 0.03 1011.5
20260905235203 0 88 1.7 7.8 0.03 0.03 0.03 1011.5
20260905235104 0 81 1.7 7.8 0.03 0.03 0.03 1011.6
20260905235003 0 140 1.7 7.8 0.02 0.02 0.03 1011.6
20260905234903 0 140 1.7 7.8 0.02 0.02 0.02 1011.7
20260905234800 0 140 1.7 7.8 0.02 0.02 0.02 1011.6
20260905234701 0 103 2.6 7.8 0.02 0.02 0.02 1011.6
20260905234601 0 103 2.6 8.7 0.02 0.02 0.02 1011.7
20260905234502 0 102 2.6 8.7 0.02 0.02 0.02 1011.6
20260905234403 0 100 2.6 8.7 0.02 0.02 0.02 1011.6
20260905234302 0 85 2.6 8.7 0.02 0.02 0.02 1011.6
20260905234202 0 163 2.6 8.7 0.02 0.02 0.02 1011.7
20260905234059 0 153 2.6 8.7 0.02 0.02 0.02 1011.6
20260905233958 0 166 2.6 8.7 0.02 0.02 0.02 1011.6
20260905233857 0 123 2.6 8.7 0.02 0.02 0.02 1011.7
20260905233841 0 146 2.6 8.7 0.02 0.02 0.02 1011.7
20260905233656 0 121 2.6 8.7 0.02 0.02 0.02 1011.7
20260905233555 0 158 2.6 7.8 0.02 0.02 0.02 1011.6
20260905233453 0 110 2.6 7.8 0.02 0.02 0.02 1011.7
20260905233353 0 150 2.6 7.8 0.02 0.02 0.02 1011.6
20260905233254 0 168 2.6 7.0 0.02 0.02 0.02 1011.7
20260905233154 0 170 2.6 7.0 0.02 0.02 0.02 1011.7
20260905233053 0 163 2.6 13.9 0.02 0.02 0.02 1011.8
20260905232953 0 136 2.6 13.9 0.02 0.02 0.02 1011.8
20260905232854 0 136 3.5 13.9 0.02 0.02 0.02 1011.9
20260905232651 0 133 3.5 13.9 0.01 0.01 0.02 1012.0
20260905232549 0 69 3.5 13.9 0.01 0.01 0.01 1012.0
20260905232449 0 176 3.5 13.9 0.01 0.01 0.01 1012.1
20260905232348 0 176 3.5 13.9 0.01 0.01 0.01 1011.9
20260905232247 0 142 3.5 13.9 0.01 0.01 0.01 1012.0
20260905232145 0 142 3.5 13.9 0.01 0.01 0.01 1012.0
20260905232046 0 167 3.5 10.4 0.01 0.01 0.01 1012.2
20260905231947 0 161 3.5 10.4 0.01 0.01 0.01 1012.2
20260905231845 0 132 3.5 10.4 0.01 0.01 0.01 1012.1
20260905231745 0 161 2.6 7.8 0.01 0.01 0.01 1012.0
20260905231646 0 167 2.6 7.8 0.01 0.01 0.01 1012.0
20260905231546 0 169 2.6 7.8 0.01 0.01 0.01 1011.9
20260905231447 0 140 2.6 7.8 0.01 0.01 0.01 1011.9
20260905231345 0 141 3.5 8.7 0.00 0.00 0.00 1011.8
20260905231246 0 137 3.5 8.7 0.00 0.00 0.00 1011.8
20260905231146 0 115 2.6 8.7 0.00 0.00 0.00 1011.6
20260905231044 0 82 3.5 8.7 0.00 0.00 0.00 1011.6
20260905230945 0 42 3.5 15.6 0.00 0.00 0.00 1011.5
20260905230845 0 125 4.3 15.6 0.00 0.00 0.00 1011.5
20260905230644 0 80 5.2 20.9 0.00 0.00 0.00 1011.4
20260905230545 0 346 5.2 20.9 0.00 0.00 0.00 1011.3
20260905230445 0 355 6.1 20.9 0.00 0.00 0.00 1011.5
20260905230346 0 26 6.1 20.9 0.00 0.00 0.00 1011.5
20260905230246 0 65 7.0 20.9 0.00 0.00 0.00 1011.5
20260905230145 0 76 7.0 20.9 0.00 0.00 0.00 1011.5
20260905230046 0 30 7.0 20.9 0.00 0.00 0.00 1011.5
20260905225945 0 267 7.8 20.9 0.00 0.00 0.00 1011.4
20260905225845 0 329 7.8 20.9 0.00 0.00 0.00 1011.5
20260905225745 0 331 7.8 16.5 0.00 0.00 0.00 1011.3
20260905225646 0 44 7.8 16.5 0.00 0.00 0.00 1011.2
20260905225545 0 338 7.8 16.5 0.00 0.00 0.00 1011.3
20260905225445 0 36 8.7 19.1 0.00 0.00 0.00 1011.4
20260905225345 0 292 9.6 21.7 0.00 0.00 0.00 1011.2
20260905225246 0 329 8.7 21.7 0.00 0.00 0.00 1010.9
20260905225146 0 313 9.6 21.7 0.00 0.00 0.00 1010.7
20260905225044 0 308 9.6 21.7 0.00 0.00 0.00 1010.5
20260905224946 0 267 10.4 22.6 0.00 0.00 0.00 1010.3
20260905224855 0 299 9.6 22.6 0.00 0.00 0.00 1010.2
20260905224838 0 5 9.6 22.6 0.00 0.00 0.00 1010.0
20260905224645 0 326 9.6 22.6 0.00 0.00 0.00 1010.0
20260905224545 0 317 9.6 22.6 0.00 0.00 0.00 1009.7
20260905224446 0 306 9.6 22.6 0.00 0.00 0.00 1009.7
20260905224355 0 328 8.7 22.6 0.00 0.00 0.00 1009.7
20260905224338 0 271 7.8 22.6 0.00 0.00 0.00 1009.8
20260905224146 0 345 7.0 22.6 0.00 0.00 0.00 1009.9
20260905224045 0 281 6.1 22.6 0.00 0.00 0.00 1010.1
20260905223945 0 313 5.2 19.1 0.00 0.00 0.00 1010.1
20260905223845 0 270 4.3 18.2 0.00 0.00 0.00 1010.1
20260905223746 0 274 4.3 18.2 0.00 0.00 0.00 1010.1
20260905223646 0 258 3.5 18.2 0.00 0.00 0.00 1010.1
20260905223545 0 299 2.6 18.2 0.00 0.00 0.00 1010.2
20260905223444 0 252 2.6 13.0 0.00 0.00 0.00 1010.0
20260905223345 0 296 2.6 10.4 0.00 0.00 0.00 1009.8
20260905223247 0 326 2.6 4.3 0.00 0.00 0.00 1009.7
20260905223146 0 223 2.6 4.3 0.00 0.00 0.00 1009.5
20260905223045 0 224 2.6 4.3 0.00 0.00 0.00 1009.4
20260905222945 0 224 2.6 4.3 0.00 0.00 0.00 1009.4
20260905222846 0 224 2.6 5.2 0.00 0.00 0.00 1009.4
20260905222646 0 224 3.5 5.2 0.00 0.00 0.00 1009.3
20260905222545 0 223 3.5 6.1 0.00 0.00 0.00 1009.3
20260905222446 0 223 3.5 6.1 0.00 0.00 0.00 1009.2
20260905222345 0 223 3.5 6.1 0.00 0.00 0.00 1009.2
20260905222144 0 224 3.5 6.1 0.00 0.00 0.00 1009.2
20260905222046 0 223 3.5 6.1 0.00 0.00 0.00 1009.2
20260905221945 0 223 3.5 7.0 0.00 0.00 0.00 1009.2
20260905221846 0 224 3.5 7.0 0.00 0.00 0.00 1009.1
20260905221746 0 225 4.3 7.0 0.00 0.00 0.00 1009.1
20260905221645 0 226 4.3 7.0 0.00 0.00 0.00 1009.0
20260905221545 0 223 3.5 7.0 0.00 0.00 0.00 1009.0
20260905221446 0 224 3.5 7.0 0.00 0.00 0.00 1009.0
20260905221353 0 224 3.5 7.0 0.00 0.00 0.00 1009.1
20260905221338 0 224 3.5 7.0 0.00 0.00 0.00 1009.2
20260905221146 0 221 4.3 7.0 0.00 0.00 0.00 1009.2
20260905221045 0 227 3.5 7.0 0.00 0.00 0.00 1009.2
20260905220945 0 224 3.5 6.1 0.00 0.00 0.00 1009.2
20260905220852 0 224 3.5 6.1 0.00 0.00 0.00 1009.3
20260905220837 0 224 3.5 7.0 0.00 0.00 0.00 1009.2
20260905220646 0 222 4.3 9.6 0.00 0.00 0.00 1009.2
20260905220544 0 221 4.3 9.6 0.00 0.00 0.00 1009.2
20260905220447 0 221 4.3 9.6 0.00 0.00 0.00 1009.2
20260905220345 0 221 4.3 9.6 0.00 0.00 0.00 1009.3
20260905220146 0 224 4.3 9.6 0.00 0.00 0.00 1009.5
20260905220045 0 226 4.3 9.6 0.00 0.00 0.00 1009.5
20260905215946 0 223 4.3 9.6 0.00 0.00 0.00 1009.6
20260905215852 0 227 4.3 9.6 0.00 0.00 0.00 1009.8
20260905215837 0 218 4.3 9.6 0.00 0.00 0.00 1009.9
20260905215646 0 221 4.3 8.7 0.00 0.00 0.00 1009.9
20260905215544 0 221 3.5 8.7 0.00 0.00 0.00 1010.0
20260905215446 0 223 3.5 7.0 0.00 0.00 0.00 1010.0
20260905215345 0 227 2.6 5.2 0.00 0.00 0.00 1010.0
20260905215246 0 230 3.5 6.1 0.00 0.00 0.00 1010.0
20260905215146 0 224 2.6 6.1 0.00 0.00 0.00 1009.9
20260905215044 0 225 3.5 6.1 0.00 0.00 0.00 1009.8
20260905214945 0 225 3.5 6.1 0.00 0.00 0.00 1009.9
20260905214845 0 223 3.5 7.8 0.00 0.00 0.00 1009.9
20260905214645 0 227 3.5 7.8 0.00 0.00 0.00 1009.8
20260905214546 0 219 3.5 7.8 0.00 0.00 0.00 1009.8
20260905214446 0 219 3.5 7.8 0.00 0.00 0.00 1009.7
20260905214344 0 219 3.5 7.8 0.00 0.00 0.00 1009.8
20260905214145 0 230 3.5 7.8 0.00 0.00 0.00 1009.9
20260905214046 0 227 2.6 7.8 0.00 0.00 0.00 1009.8
20260905213944 0 228 2.6 7.8 0.00 0.00 0.00 1009.8
20260905213845 0 227 2.6 5.2 0.00 0.00 0.00 1009.9
20260905213645 0 220 2.6 5.2 0.00 0.00 0.00 1009.8
20260905213544 0 220 2.6 5.2 0.00 0.00 0.00 1009.7
20260905213445 0 220 2.6 5.2 0.00 0.00 0.00 1009.6
20260905213345 0 219 2.6 5.2 0.00 0.00 0.00 1009.6
20260905213145 0 223 1.7 5.2 0.00 0.00 0.00 1009.5
20260905213046 0 221 2.6 5.2 0.00 0.00 0.00 1009.5
20260905212947 0 223 1.7 5.2 0.00 0.00 0.00 1009.5
20260905212851 0 223 2.6 4.3 0.00 0.00 0.00 1009.4
20260905212836 0 223 2.6 4.3 0.00 0.00 0.00 1009.3
20260905212644 0 223 2.6 5.2 0.00 0.00 0.00 1009.3
20260905212544 0 223 2.6 5.2 0.00 0.00 0.00 1009.3
20260905212443 0 223 2.6 5.2 0.00 0.00 0.00 1009.4
20260905212344 0 223 3.5 8.7 0.00 0.00 0.00 1009.3
20260905212142 0 223 4.3 11.3 0.00 0.00 0.00 1009.4
20260905212041 0 223 4.3 11.3 0.00 0.00 0.00 1009.4
20260905211941 0 223 4.3 11.3 0.00 0.00 0.00 1009.4
20260905211840 0 223 4.3 11.3 0.00 0.00 0.00 1009.4
20260905211738 0 222 4.3 11.3 0.00 0.00 0.00 1009.4
20260905211639 0 223 4.3 11.3 0.00 0.00 0.00 1009.4
20260905211538 0 223 3.5 11.3 0.00 0.00 0.00 1009.4
20260905211436 0 222 3.5 11.3 0.00 0.00 0.00 1009.5
20260905211337 0 225 3.5 11.3 0.00 0.00 0.00 1009.5
20260905211237 0 225 3.5 7.0 0.00 0.00 0.00 1009.5
20260905211138 0 225 3.5 7.0 0.00 0.00 0.00 1009.5
20260905211037 0 223 3.5 6.1 0.00 0.00 0.00 1009.5
20260905210936 0 223 3.5 6.1 0.00 0.00 0.00 1009.4
20260905210835 0 222 3.5 6.1 0.00 0.00 0.00 1009.4
20260905210735 0 221 3.5 6.1 0.00 0.00 0.00 1009.3
20260905210633 0 221 3.5 6.1 0.00 0.00 0.00 1009.3
20260905210534 0 221 3.5 6.1 0.00 0.00 0.00 1009.3
20260905210432 0 221 4.3 7.8 0.00 0.00 0.00 1009.1
20260905210333 0 221 4.3 9.6 0.00 0.00 0.00 1009.2
20260905210132 0 222 4.3 9.6 0.00 0.00 0.00 1009.3
20260905210032 0 223 5.2 9.6 0.00 0.00 0.00 1009.4
20260905205931 0 221 5.2 9.6 0.00 0.00 0.00 1009.3
20260905205829 0 223 5.2 9.6 0.00 0.00 0.00 1009.4
20260905205626 0 225 5.2 9.6 0.00 0.00 0.00 1009.4
20260905205527 0 225 5.2 9.6 0.00 0.00 0.00 1009.3
20260905205427 0 224 5.2 9.6 0.00 0.00 0.00 1009.4
20260905205325 0 221 5.2 9.6 0.00 0.00 0.00 1009.3
20260905205124 0 225 5.2 9.6 0.00 0.00 0.00 1009.3
20260905205026 0 218 5.2 9.6 0.00 0.00 0.00 1009.2
20260905204925 0 222 4.3 9.6 0.00 0.00 0.00 1009.1
20260905204825 0 219 4.3 7.8 0.00 0.00 0.00 1009.1
20260905204626 0 225 4.3 7.8 0.00 0.00 0.00 1009.0
20260905204524 0 225 4.3 7.0 0.00 0.00 0.00 1009.0
20260905204426 0 226 3.5 7.0 0.00 0.00 0.00 1009.1
20260905204324 0 229 3.5 7.0 0.00 0.00 0.00 1009.1
20260905204124 0 217 4.3 7.0 0.00 0.00 0.00 1009.0
20260905204022 0 217 4.3 7.0 0.00 0.00 0.00 1009.0
20260905203922 0 214 4.3 7.0 0.00 0.00 0.00 1009.0
20260905203823 0 217 4.3 7.0 0.00 0.00 0.00 1009.0
20260905203720 0 217 4.3 7.0 0.00 0.00 0.00 1009.0
20260905203622 0 225 3.5 7.0 0.00 0.00 0.00 1009.0
20260905203522 0 215 3.5 7.0 0.00 0.00 0.00 1009.0
20260905203420 0 223 3.5 7.0 0.00 0.00 0.00 1009.0
20260905203321 0 227 3.5 7.0 0.00 0.00 0.00 1009.0
20260905203221 0 227 3.5 7.0 0.00 0.00 0.00 1008.9
20260905203120 0 224 2.6 7.0 0.00 0.00 0.00 1008.9
20260905203021 0 210 2.6 7.0 0.00 0.00 0.00 1008.9
20260905202919 0 220 2.6 6.1 0.00 0.00 0.00 1009.0
20260905202818 0 219 2.6 5.2 0.00 0.00 0.00 1009.0
20260905202719 0 209 1.7 5.2 0.00 0.00 0.00 1008.9
20260905202618 0 225 1.7 5.2 0.00 0.00 0.00 1008.9
20260905202519 0 219 1.7 5.2 0.00 0.00 0.00 1009.0
20260905202419 0 219 2.6 5.2 0.00 0.00 0.00 1008.9
20260905202318 0 221 2.6 5.2 0.00 0.00 0.00 1009.0
20260905202218 0 221 2.6 5.2 0.00 0.00 0.00 1009.0
20260905202117 0 223 2.6 5.2 0.00 0.00 0.00 1009.0
20260905202017 0 223 2.6 7.0 0.00 0.00 0.00 1009.1
20260905201917 0 223 2.6 7.0 0.00 0.00 0.00 1009.0
20260905201817 0 223 2.6 7.0 0.00 0.00 0.00 1009.1
20260905201716 0 223 2.6 7.0 0.00 0.00 0.00 1009.0
20260905201614 0 223 2.6 7.0 0.00 0.00 0.00 1009.2
20260905201513 0 223 2.6 7.0 0.00 0.00 0.00 1009.2
20260905201413 0 223 2.6 7.0 0.00 0.00 0.00 1009.3
20260905201312 0 221 2.6 7.0 0.00 0.00 0.00 1009.3
20260905201210 0 225 2.6 7.0 0.00 0.00 0.00 1009.3
20260905201112 0 225 2.6 7.0 0.00 0.00 0.00 1009.3
20260905201008 0 225 2.6 6.1 0.00 0.00 0.00 1009.3
20260905200908 0 223 2.6 6.1 0.00 0.00 0.00 1009.4
20260905200807 0 225 2.6 6.1 0.00 0.00 0.00 1009.4
20260905200707 0 226 2.6 5.2 0.00 0.00 0.00 1009.4
20260905200607 0 226 2.6 5.2 0.00 0.00 0.00 1009.3
20260905200506 0 226 2.6 5.2 0.00 0.00 0.00 1009.4
20260905200407 0 226 2.6 5.2 0.00 0.00 0.00 1009.4
20260905200306 0 226 2.6 5.2 0.00 0.00 0.00 1009.4
20260905200207 0 226 2.6 5.2 0.00 0.00 0.00 1009.5
20260905200107 0 225 3.5 5.2 0.00 0.00 0.00 1009.5
20260905195907 0 221 2.6 6.1 0.00 0.00 0.00 1009.4
20260905195837 0 220 2.6 6.1 0.00 0.00 0.00 1009.4
20260905195707 0 220 2.6 6.1 0.00 0.00 0.00 1009.5
20260905195605 0 223 2.6 6.1 0.00 0.00 0.00 1009.5
20260905195504 0 225 2.6 6.1 0.00 0.00 0.00 1009.6
20260905195405 0 225 2.6 6.1 0.00 0.00 0.00 1009.6
20260905195306 0 224 2.6 6.1 0.00 0.00 0.00 1009.5
20260905195205 0 225 2.6 6.1 0.00 0.00 0.00 1009.6
20260905195106 0 225 2.6 6.1 0.00 0.00 0.00 1009.5
20260905195004 0 225 2.6 6.1 0.00 0.00 0.00 1009.6
20260905194906 0 202 2.6 5.2 0.00 0.00 0.00 1009.6
20260905194804 0 205 2.6 5.2 0.00 0.00 0.00 1009.6
20260905194704 0 209 2.6 4.3 0.00 0.00 0.00 1009.6
20260905194605 0 136 2.6 4.3 0.00 0.00 0.00 1009.7
20260905194505 0 217 2.6 4.3 0.00 0.00 0.00 1009.6
20260905194405 0 217 1.7 4.3 0.00 0.00 0.00 1009.6
20260905194303 0 217 2.6 4.3 0.00 0.00 0.00 1009.7
20260905194204 0 217 2.6 4.3 0.00 0.00 0.00 1009.7
20260905194100 0 217 2.6 4.3 0.00 0.00 0.00 1009.7
20260905194001 0 217 2.6 4.3 0.00 0.00 0.00 1009.7
20260905193900 0 216 2.6 4.3 0.00 0.00 0.00 1009.7
20260905193758 0 215 2.6 4.3 0.00 0.00 0.00 1009.6
20260905193658 0 215 2.6 6.1 0.00 0.00 0.00 1009.6
20260905193557 0 214 2.6 6.1 0.00 0.00 0.00 1009.5
20260905193457 0 214 1.7 6.1 0.00 0.00 0.00 1009.6
20260905193357 0 140 1.7 6.1 0.00 0.00 0.00 1009.5
20260905193256 0 136 1.7 6.1 0.00 0.00 0.00 1009.5
20260905193152 0 121 1.7 6.1 0.00 0.00 0.00 1009.6
20260905193054 0 105 1.7 6.1 0.00 0.00 0.00 1009.6
20260905192953 0 155 1.7 6.1 0.00 0.00 0.00 1009.6
20260905192853 0 219 1.7 6.1 0.00 0.00 0.00 1009.6
20260905192750 0 219 1.7 6.1 0.00 0.00 0.00 1009.6
20260905192650 0 161 1.7 6.1 0.00 0.00 0.00 1009.7
20260905192550 0 188 1.7 6.1 0.00 0.00 0.00 1009.6
20260905192449 0 188 1.7 6.1 0.00 0.00 0.00 1009.7
20260905192347 0 188 1.7 6.1 0.00 0.00 0.00 1009.7
20260905192246 0 188 1.7 6.1 0.00 0.00 0.00 1009.7
20260905192146 0 189 1.7 6.1 0.00 0.00 0.00 1009.7
20260905192048 0 153 2.6 6.1 0.00 0.00 0.00 1009.7
20260905191948 0 153 1.7 6.1 0.00 0.00 0.00 1009.8
20260905191847 0 152 2.6 4.3 0.00 0.00 0.00 1009.8
20260905191747 0 158 2.6 4.3 0.00 0.00 0.00 1009.8
20260905191648 0 206 2.6 4.3 0.00 0.00 0.00 1009.8
20260905191547 0 206 1.7 4.3 0.00 0.00 0.00 1009.9
20260905191448 0 205 1.7 4.3 0.00 0.00 0.00 1009.9
20260905191348 0 205 1.7 4.3 0.00 0.00 0.00 1010.0
20260905191246 0 169 1.7 4.3 0.00 0.00 0.00 1010.0
20260905191147 0 168 1.7 5.2 0.00 0.00 0.00 1010.0
20260905191044 0 168 1.7 5.2 0.00 0.00 0.00 1010.1
20260905190944 0 231 1.7 5.2 0.00 0.00 0.00 1010.0
20260905190843 0 234 1.7 5.2 0.00 0.00 0.00 1010.1
20260905190643 0 239 1.7 5.2 0.00 0.00 0.00 1010.2
20260905190542 0 239 1.7 5.2 0.00 0.00 0.00 1010.2
20260905190440 0 265 1.7 5.2 0.00 0.00 0.00 1010.2
20260905190338 0 304 1.7 8.7 0.00 0.00 0.00 1010.2
20260905190139 0 232 2.6 8.7 0.00 0.00 0.00 1010.4
20260905190036 0 231 2.6 8.7 0.00 0.00 0.00 1010.4
20260905185937 0 232 2.6 8.7 0.00 0.00 0.00 1010.4
20260905185836 0 234 2.6 8.7 0.00 0.00 0.00 1010.4
20260905185738 0 210 2.6 8.7 0.00 0.00 0.00 1010.4
20260905185638 0 338 2.6 8.7 0.00 0.00 0.00 1010.4
20260905185537 0 261 2.6 8.7 0.00 0.00 0.00 1010.4
20260905185436 0 261 2.6 8.7 0.00 0.00 0.00 1010.5
20260905185338 0 302 1.7 7.8 0.00 0.00 0.00 1010.5
20260905185236 0 226 1.7 6.1 0.00 0.00 0.00 1010.4
20260905185137 0 232 1.7 4.3 0.00 0.00 0.00 1010.4
20260905185037 0 299 1.7 3.5 0.00 0.00 0.00 1010.5
20260905184937 0 309 1.7 3.5 0.00 0.00 0.00 1010.5
20260905184836 0 309 1.7 5.2 0.00 0.00 0.00 1010.5
20260905184634 0 266 1.7 7.0 0.00 0.00 0.00 1010.5
20260905184532 0 265 1.7 7.0 0.00 0.00 0.00 1010.5
20260905184433 0 265 1.7 7.0 0.00 0.00 0.00 1010.6
20260905184331 0 268 1.7 7.0 0.00 0.00 0.00 1010.6
20260905184230 0 286 2.6 7.0 0.00 0.00 0.00 1010.5
20260905184131 0 308 2.6 7.0 0.00 0.00 0.00 1010.6
20260905184032 0 291 2.6 7.0 0.00 0.00 0.00 1010.6
20260905183930 0 311 2.6 7.0 0.00 0.00 0.00 1010.6
20260905183831 0 327 2.6 7.0 0.00 0.00 0.00 1010.6
20260905183631 0 250 2.6 4.3 0.00 0.00 0.00 1010.5
20260905183531 0 251 2.6 5.2 0.00 0.00 0.00 1010.6
20260905183431 0 326 2.6 5.2 0.00 0.00 0.00 1010.6
20260905183330 0 323 2.6 5.2 0.00 0.00 0.00 1010.6
20260905183231 0 336 1.7 5.2 0.00 0.00 0.00 1010.5
20260905183128 0 350 1.7 5.2 0.00 0.00 0.00 1010.6
20260905183029 0 355 1.7 5.2 0.00 0.00 0.00 1010.6
20260905182927 0 254 1.7 8.7 0.00 0.00 0.00 1010.6
20260905182827 0 275 1.7 8.7 0.00 0.00 0.00 1010.7
20260905182624 0 272 2.6 8.7 0.00 0.00 0.00 1010.7
20260905182525 0 232 1.7 8.7 0.00 0.00 0.00 1010.7
20260905182424 0 230 2.6 8.7 0.00 0.00 0.00 1010.7
20260905182325 0 294 2.6 8.7 0.00 0.00 0.00 1010.7
20260905182125 0 307 2.6 9.6 0.00 0.00 0.00 1010.8
20260905182025 0 350 2.6 9.6 0.00 0.00 0.00 1010.8
20260905181924 0 228 3.5 9.6 0.00 0.00 0.00 1010.8
20260905181824 0 232 2.6 9.6 0.00 0.00 0.00 1010.8
20260905181625 0 268 3.5 9.6 0.00 0.00 0.00 1010.8
20260905181524 0 269 3.5 9.6 0.00 0.00 0.00 1010.9
20260905181424 0 338 3.5 9.6 0.00 0.00 0.00 1010.9
20260905181321 0 328 2.6 9.6 0.00 0.00 0.00 1010.9
20260905181122 0 322 2.6 7.8 0.00 0.00 0.00 1010.9
20260905181019 0 330 2.6 7.8 0.00 0.00 0.00 1010.9
20260905180918 0 338 1.7 7.8 0.00 0.00 0.00 1010.9
20260905180839 0 223 1.7 6.1 0.00 0.00 0.00 1011.0
20260905180823 0 248 1.7 4.3 0.00 0.00 0.00 1010.9
20260905180614 0 294 1.7 4.3 0.00 0.00 0.00 1011.0
20260905180515 0 295 1.7 4.3 0.00 0.00 0.00 1011.0
20260905180414 0 319 1.7 4.3 0.00 0.00 0.00 1011.0
20260905180315 0 225 1.7 4.3 0.00 0.00 0.00 1011.0
20260905180213 0 223 1.7 4.3 0.00 0.00 0.00 1011.0
20260905180114 0 223 1.7 4.3 0.00 0.00 0.00 1011.1
20260905180010 0 223 1.7 4.3 0.00 0.00 0.00 1011.1
20260905175910 0 223 1.7 4.3 0.00 0.00 0.00 1011.1
20260905175809 0 221 1.7 4.3 0.00 0.00 0.00 1011.1
20260905175708 0 219 1.7 4.3 0.00 0.00 0.00 1011.0
20260905175608 0 220 1.7 4.3 0.00 0.00 0.00 1011.1
20260905175509 0 220 2.6 6.1 0.00 0.00 0.00 1011.1
20260905175408 0 219 2.6 6.1 0.00 0.00 0.00 1011.1
20260905175309 0 220 2.6 6.1 0.00 0.00 0.00 1011.1
20260905175208 0 221 2.6 6.1 0.00 0.00 0.00 1011.2
20260905175108 0 219 2.6 6.1 0.00 0.00 0.00 1011.2
20260905175008 0 229 2.6 6.1 0.00 0.00 0.00 1011.2
20260905174909 0 230 2.6 6.1 0.00 0.00 0.00 1011.1
20260905174810 0 229 2.6 6.1 0.00 0.00 0.00 1011.3
20260905174708 0 229 2.6 6.1 0.00 0.00 0.00 1011.2
20260905174610 0 230 2.6 6.1 0.00 0.00 0.00 1011.2
20260905174507 0 229 2.6 6.1 0.00 0.00 0.00 1011.3
20260905174406 0 228 2.6 6.1 0.00 0.00 0.00 1011.3
20260905174305 0 224 2.6 6.1 0.00 0.00 0.00 1011.3
20260905174206 0 224 2.6 6.1 0.00 0.00 0.00 1011.3
20260905174104 0 226 2.6 7.0 0.00 0.00 0.00 1011.4
20260905174003 0 224 2.6 7.8 0.00 0.00 0.00 1011.4
20260905173900 0 224 3.5 7.8 0.00 0.00 0.00 1011.3
20260905173801 0 224 3.5 7.8 0.00 0.00 0.00 1011.5
20260905173658 0 223 3.5 7.8 0.00 0.00 0.00 1011.4
20260905173559 0 226 3.5 7.8 0.00 0.00 0.00 1011.4
20260905173457 0 226 3.5 7.8 0.00 0.00 0.00 1011.4
20260905173357 0 225 3.5 8.7 0.00 0.00 0.00 1011.4
20260905173257 0 226 3.5 8.7 0.00 0.00 0.00 1011.4
20260905173157 0 225 3.5 8.7 0.00 0.00 0.00 1011.4
20260905173056 0 226 3.5 8.7 0.00 0.00 0.00 1011.4
20260905172958 0 232 3.5 8.7 0.00 0.00 0.00 1011.5
20260905172854 0 232 3.5 8.7 0.00 0.00 0.00 1011.4
20260905172754 0 288 3.5 8.7 0.00 0.00 0.00 1011.5
20260905172652 0 229 3.5 8.7 0.00 0.00 0.00 1011.4
20260905172553 0 336 2.6 8.7 0.00 0.00 0.00 1011.4
20260905172454 0 313 3.5 8.7 0.00 0.00 0.00 1011.5
20260905172352 0 335 2.6 7.8 0.00 0.00 0.00 1011.5
20260905172252 0 308 2.6 7.0 0.00 0.00 0.00 1011.6
20260905172152 0 318 2.6 7.0 0.00 0.00 0.00 1011.5
20260905172054 0 306 2.6 7.0 0.00 0.00 0.00 1011.6
20260905171952 0 322 3.5 8.7 0.00 0.00 0.00 1011.6
20260905171852 0 322 3.5 8.7 0.00 0.00 0.00 1011.6
20260905171753 0 314 3.5 8.7 0.00 0.00 0.00 1011.6
20260905171653 0 314 3.5 8.7 0.00 0.00 0.00 1011.6
20260905171554 0 325 3.5 8.7 0.00 0.00 0.00 1011.6
20260905171452 0 219 2.6 8.7 0.00 0.00 0.00 1011.6
20260905171354 0 229 2.6 8.7 0.00 0.00 0.00 1011.6
20260905171252 0 230 2.6 8.7 0.00 0.00 0.00 1011.6
20260905171152 0 236 2.6 8.7 0.00 0.00 0.00 1011.7
20260905171050 0 225 2.6 8.7 0.00 0.00 0.00 1011.6
20260905170950 0 223 2.6 7.0 0.00 0.00 0.00 1011.7
20260905170848 0 238 2.6 7.0 0.00 0.00 0.00 1011.7
20260905170748 0 229 2.6 7.0 0.00 0.00 0.00 1011.7
20260905170649 0 225 2.6 7.0 0.00 0.00 0.00 1011.8
20260905170548 0 225 2.6 7.0 0.00 0.00 0.00 1011.8
20260905170448 0 225 2.6 7.0 0.00 0.00 0.00 1011.8
20260905170345 0 225 2.6 7.0 0.00 0.00 0.00 1011.8
20260905170245 0 225 3.5 7.0 0.00 0.00 0.00 1011.8
20260905170145 0 225 3.5 7.0 0.00 0.00 0.00 1011.8
20260905170045 0 225 3.5 7.0 0.00 0.00 0.00 1011.8
20260905165945 0 225 2.6 7.0 0.00 0.00 0.00 1011.9
20260905165845 0 219 2.6 6.1 0.00 0.00 0.00 1012.0
20260905165743 0 224 2.6 6.1 0.00 0.00 0.00 1011.9
20260905165645 0 223 2.6 7.8 0.00 0.00 0.00 1012.0
20260905165546 0 314 2.6 7.8 0.00 0.00 0.00 1012.0
20260905165445 0 225 2.6 7.8 0.00 0.00 0.00 1012.0
20260905165342 0 224 2.6 7.8 0.00 0.00 0.00 1012.0
20260905165243 0 223 2.6 7.8 0.00 0.00 0.00 1012.0
20260905165140 0 234 2.6 7.8 0.00 0.00 0.00 1012.0
20260905165040 0 244 2.6 7.8 0.00 0.00 0.00 1012.0
20260905164941 0 340 2.6 7.8 0.00 0.00 0.00 1012.1
20260905164839 0 342 3.5 7.8 0.00 0.00 0.00 1012.0
20260905164821 0 333 3.5 8.7 0.00 0.00 0.00 1012.1
20260905164637 0 328 3.5 8.7 0.00 0.00 0.00 1012.1
20260905164538 0 231 3.5 8.7 0.00 0.00 0.00 1012.2
20260905164437 0 250 4.3 8.7 0.00 0.00 0.00 1012.1
20260905164337 0 318 4.3 8.7 0.00 0.00 0.00 1012.1
20260905164320 0 305 4.3 8.7 0.00 0.00 0.00 1012.2
20260905164133 0 329 4.3 8.7 0.00 0.00 0.00 1012.2
20260905164032 0 225 4.3 8.7 0.00 0.00 0.00 1012.3
20260905163932 0 223 4.3 8.7 0.00 0.00 0.00 1012.3
20260905163837 0 238 4.3 8.7 0.00 0.00 0.00 1012.3
20260905163732 0 234 4.3 8.7 0.00 0.00 0.00 1012.3
20260905163633 0 221 4.3 8.7 0.00 0.00 0.00 1012.3
20260905163531 0 222 4.3 8.7 0.00 0.00 0.00 1012.4
20260905163433 0 222 4.3 7.8 0.00 0.00 0.00 1012.4
20260905163333 0 228 4.3 7.8 0.00 0.00 0.00 1012.3
20260905163232 0 224 4.3 7.8 0.00 0.00 0.00 1012.4
20260905163130 0 225 4.3 7.8 0.00 0.00 0.00 1012.4
20260905163030 0 220 4.3 7.8 0.00 0.00 0.00 1012.4
20260905162930 0 225 4.3 7.8 0.00 0.00 0.00 1012.5
20260905162836 0 236 4.3 7.8 0.00 0.00 0.00 1012.5
20260905162820 0 219 4.3 8.7 0.00 0.00 0.00 1012.5
20260905162630 0 219 5.2 8.7 0.00 0.00 0.00 1012.6
20260905162529 0 207 5.2 8.7 0.00 0.00 0.00 1012.5
20260905162431 0 223 5.2 8.7 0.00 0.00 0.00 1012.7
20260905162330 0 221 4.3 8.7 0.00 0.00 0.00 1012.7
20260905162232 0 229 4.3 8.7 0.00 0.00 0.00 1012.6
20260905162130 0 216 4.3 8.7 0.00 0.00 0.00 1012.6
20260905162031 0 227 5.2 9.6 0.00 0.00 0.00 1012.6
20260905161931 0 227 4.3 9.6 0.00 0.00 0.00 1012.7
20260905161830 0 223 4.3 9.6 0.00 0.00 0.00 1012.7
20260905161731 0 223 4.3 9.6 0.00 0.00 0.00 1012.7
20260905161630 0 236 4.3 9.6 0.00 0.00 0.00 1012.7
20260905161531 0 223 4.3 9.6 0.00 0.00 0.00 1012.7
20260905161430 0 222 4.3 9.6 0.00 0.00 0.00 1012.7
20260905161331 0 222 4.3 9.6 0.00 0.00 0.00 1012.6
20260905161228 0 233 4.3 9.6 0.00 0.00 0.00 1012.8
20260905161129 0 223 4.3 9.6 0.00 0.00 0.00 1012.8
20260905161028 0 223 4.3 7.8 0.00 0.00 0.00 1012.7
20260905160928 0 222 4.3 7.8 0.00 0.00 0.00 1012.8
20260905160829 0 221 4.3 7.8 0.00 0.00 0.00 1012.7
20260905160727 0 224 5.2 7.8 0.00 0.00 0.00 1012.8
20260905160628 0 229 5.2 7.8 0.00 0.00 0.00 1012.9
20260905160529 0 228 5.2 10.4 0.00 0.00 0.00 1012.8
20260905160428 0 225 5.2 10.4 0.00 0.00 0.00 1012.8
20260905160329 0 231 5.2 10.4 0.00 0.00 0.00 1012.8
20260905160129 0 229 5.2 10.4 0.00 0.00 0.00 1012.9
20260905160027 0 224 5.2 10.4 0.00 0.00 0.00 1012.7
20260905155927 0 229 5.2 10.4 0.00 0.00 0.00 1012.9
20260905155834 0 222 4.3 10.4 0.00 0.00 0.00 1012.9
20260905155818 0 225 4.3 10.4 0.00 0.00 0.00 1012.9
20260905155626 0 223 4.3 10.4 0.00 0.00 0.00 1012.9
20260905155526 0 211 4.3 9.6 0.00 0.00 0.00 1012.9
20260905155427 0 225 3.5 9.6 0.00 0.00 0.00 1012.9
20260905155328 0 224 3.5 8.7 0.00 0.00 0.00 1012.9
20260905155227 0 224 3.5 7.0 0.00 0.00 0.00 1012.9
20260905155126 0 225 3.5 7.0 0.00 0.00 0.00 1012.9
20260905155027 0 220 2.6 7.0 0.00 0.00 0.00 1012.9
20260905154923 0 225 2.6 7.0 0.00 0.00 0.00 1012.9
20260905154825 0 226 2.6 7.0 0.00 0.00 0.00 1012.9
20260905154724 0 238 2.6 7.0 0.00 0.00 0.00 1012.9
20260905154625 0 242 2.6 7.8 0.00 0.00 0.00 1012.9
20260905154526 0 228 2.6 7.8 0.00 0.00 0.00 1013.0
20260905154424 0 234 2.6 7.8 0.00 0.00 0.00 1012.9
20260905154323 0 229 2.6 7.8 0.00 0.00 0.00 1012.9
20260905154226 0 337 2.6 7.8 0.00 0.00 0.00 1012.9
20260905154124 0 225 2.6 7.8 0.00 0.00 0.00 1013.0
20260905154025 0 225 3.5 7.8 0.00 0.00 0.00 1012.9
20260905153925 0 329 3.5 7.8 0.00 0.00 0.00 1012.9
20260905153832 0 228 3.5 7.8 0.00 0.00 0.00 1013.0
20260905153817 0 248 3.5 7.8 0.00 0.00 0.00 1013.0
20260905153624 0 221 3.5 7.8 0.00 0.00 0.00 1012.9
20260905153524 0 237 3.5 7.0 0.00 0.00 0.00 1013.0
20260905153427 0 225 3.5 7.0 0.00 0.00 0.00 1013.0
20260905153324 0 225 3.5 7.0 0.00 0.00 0.00 1013.0
20260905153124 0 229 3.5 7.0 0.00 0.00 0.00 1013.0
20260905153023 0 229 3.5 7.0 0.00 0.00 0.00 1013.0
20260905152924 0 229 3.5 7.0 0.00 0.00 0.00 1013.0
20260905152825 0 229 4.3 7.0 0.00 0.00 0.00 1012.9
20260905152724 0 227 4.3 7.0 0.00 0.00 0.00 1012.9
20260905152625 0 225 4.3 7.8 0.00 0.00 0.00 1012.9
20260905152524 0 222 3.5 7.8 0.00 0.00 0.00 1012.9
20260905152423 0 223 3.5 7.8 0.00 0.00 0.00 1012.9
20260905152324 0 222 3.5 7.8 0.00 0.00 0.00 1012.9
20260905152224 0 221 3.5 7.8 0.00 0.00 0.00 1012.9
20260905152124 0 227 3.5 7.8 0.00 0.00 0.00 1012.9
20260905152021 0 225 3.5 7.8 0.00 0.00 0.00 1012.9
20260905151922 0 229 3.5 7.8 0.00 0.00 0.00 1013.0
20260905151821 0 228 3.5 7.8 0.00 0.00 0.00 1013.0
20260905151723 0 246 3.5 7.8 0.00 0.00 0.00 1012.9
20260905151623 0 230 3.5 7.8 0.00 0.00 0.00 1013.0
20260905151523 0 303 3.5 7.8 0.00 0.00 0.00 1012.9
20260905151422 0 248 3.5 8.7 0.00 0.00 0.00 1013.0
20260905151330 0 265 4.3 9.6 0.00 0.00 0.00 1012.9
20260905151315 0 225 3.5 9.6 0.00 0.00 0.00 1013.0
20260905151121 0 311 4.3 9.6 0.00 0.00 0.00 1012.9
20260905151022 0 269 4.3 9.6 0.00 0.00 0.00 1013.0
20260905150922 0 227 4.3 9.6 0.00 0.00 0.00 1013.1
20260905150827 0 234 4.3 9.6 0.00 0.00 0.00 1013.1
20260905150813 0 234 4.3 9.6 0.00 0.00 0.00 1013.1
20260905150621 0 211 4.3 9.6 0.00 0.00 0.00 1013.0
20260905150522 0 221 5.2 9.6 0.00 0.00 0.00 1013.1
20260905150422 0 224 4.3 9.6 0.00 0.00 0.00 1013.1
20260905150323 0 223 4.3 8.7 0.00 0.00 0.00 1013.1
20260905150222 0 306 4.3 8.7 0.00 0.00 0.00 1013.1
20260905150123 0 225 4.3 8.7 0.00 0.00 0.00 1013.1
20260905150022 0 228 4.3 8.7 0.00 0.00 0.00 1013.1
20260905145923 0 223 4.3 8.7 0.00 0.00 0.00 1013.1
20260905145822 0 235 4.3 8.7 0.00 0.00 0.00 1013.1
20260905145722 0 219 3.5 8.7 0.00 0.00 0.00 1013.1
20260905145622 0 223 3.5 8.7 0.00 0.00 0.00 1013.2
20260905145521 0 223 3.5 7.8 0.00 0.00 0.00 1013.2
20260905145422 0 214 3.5 7.8 0.00 0.00 0.00 1013.2
20260905145321 0 228 2.6 7.8 0.00 0.00 0.00 1013.2
20260905145224 0 229 3.5 7.8 0.00 0.00 0.00 1013.2
20260905145022 0 221 3.5 7.8 0.00 0.00 0.00 1013.3
20260905144922 0 271 3.5 6.1 0.00 0.00 0.00 1013.2
20260905144822 0 355 3.5 7.0 0.00 0.00 0.00 1013.2
20260905144723 0 300 3.5 7.0 0.00 0.00 0.00 1013.2
20260905144622 0 309 3.5 7.0 0.00 0.00 0.00 1013.2
20260905144523 0 310 3.5 7.0 0.00 0.00 0.00 1013.2
20260905144421 0 338 3.5 7.0 0.00 0.00 0.00 1013.3
20260905144321 0 225 3.5 7.0 0.00 0.00 0.00 1013.2
20260905144223 0 220 3.5 7.0 0.00 0.00 0.00 1013.2
20260905144122 0 223 3.5 7.0 0.00 0.00 0.00 1013.3
20260905144021 0 329 3.5 7.0 0.00 0.00 0.00 1013.3
20260905143923 0 279 3.5 7.0 0.00 0.00 0.00 1013.3
20260905143822 0 311 3.5 7.0 0.00 0.00 0.00 1013.3
20260905143722 0 263 3.5 11.3 0.00 0.00 0.00 1013.4
20260905143622 0 324 3.5 11.3 0.00 0.00 0.00 1013.4
20260905143523 0 321 3.5 11.3 0.00 0.00 0.00 1013.3
20260905143422 0 222 3.5 11.3 0.00 0.00 0.00 1013.4
20260905143322 0 301 3.5 11.3 0.00 0.00 0.00 1013.3
20260905143222 0 227 3.5 11.3 0.00 0.00 0.00 1013.3
20260905143122 0 223 3.5 11.3 0.00 0.00 0.00 1013.3
20260905143021 0 300 3.5 11.3 0.00 0.00 0.00 1013.4
20260905142921 0 311 3.5 11.3 0.00 0.00 0.00 1013.4
20260905142821 0 227 2.6 11.3 0.00 0.00 0.00 1013.4
20260905142722 0 311 2.6 8.7 0.00 0.00 0.00 1013.4
20260905142623 0 229 2.6 8.7 0.00 0.00 0.00 1013.3
20260905142521 0 229 2.6 8.7 0.00 0.00 0.00 1013.3
20260905142421 0 225 2.6 8.7 0.00 0.00 0.00 1013.2
20260905142322 0 223 2.6 8.7 0.00 0.00 0.00 1013.3
20260905142122 0 221 2.6 8.7 0.00 0.00 0.00 1013.3
20260905142022 0 350 2.6 8.7 0.00 0.00 0.00 1013.3
20260905141922 0 250 2.6 7.8 0.00 0.00 0.00 1013.3
20260905141822 0 321 2.6 7.8 0.00 0.00 0.00 1013.3
20260905141721 0 288 2.6 7.8 0.00 0.00 0.00 1013.3
20260905141621 0 325 2.6 7.0 0.00 0.00 0.00 1013.2
20260905141522 0 340 2.6 5.2 0.00 0.00 0.00 1013.3
20260905141422 0 239 2.6 5.2 0.00 0.00 0.00 1013.3
20260905141323 0 232 2.6 5.2 0.00 0.00 0.00 1013.2
20260905141123 0 229 2.6 5.2 0.00 0.00 0.00 1013.3
20260905141022 0 229 2.6 5.2 0.00 0.00 0.00 1013.3
20260905140924 0 229 2.6 5.2 0.00 0.00 0.00 1013.2
20260905140823 0 229 2.6 5.2 0.00 0.00 0.00 1013.2
20260905140722 0 229 2.6 5.2 0.00 0.00 0.00 1013.3
20260905140622 0 258 2.6 7.0 0.00 0.00 0.00 1013.3
20260905140523 0 231 2.6 7.0 0.00 0.00 0.00 1013.3
20260905140421 0 243 2.6 7.0 0.00 0.00 0.00 1013.3
20260905140329 0 243 2.6 7.0 0.00 0.00 0.00 1013.4
20260905140314 0 308 2.6 7.0 0.00 0.00 0.00 1013.3
20260905140122 0 308 3.5 7.0 0.00 0.00 0.00 1013.4
20260905140021 0 316 3.5 7.0 0.00 0.00 0.00 1013.4
20260905135920 0 254 2.6 7.0 0.00 0.00 0.00 1013.3
20260905135820 0 307 3.5 7.0 0.00 0.00 0.00 1013.3
20260905135718 0 304 3.5 7.0 0.00 0.00 0.00 1013.3
20260905135620 0 223 2.6 7.0 0.00 0.00 0.00 1013.3
20260905135518 0 229 2.6 6.1 0.00 0.00 0.00 1013.3
20260905135417 0 227 2.6 6.1 0.00 0.00 0.00 1013.5
20260905135317 0 229 2.6 6.1 0.00 0.00 0.00 1013.5
20260905135117 0 227 2.6 6.1 0.00 0.00 0.00 1013.4
20260905135016 0 227 2.6 6.1 0.00 0.00 0.00 1013.5
20260905134917 0 227 2.6 6.1 0.00 0.00 0.00 1013.4
20260905134816 0 227 1.7 5.2 0.00 0.00 0.00 1013.3
20260905134714 0 311 1.7 5.2 0.00 0.00 0.00 1013.4
20260905134614 0 311 2.6 5.2 0.00 0.00 0.00 1013.4
20260905134514 0 230 2.6 5.2 0.00 0.00 0.00 1013.4
20260905134413 0 229 1.7 5.2 0.00 0.00 0.00 1013.5
20260905134315 0 317 1.7 5.2 0.00 0.00 0.00 1013.4
20260905134213 0 309 1.7 4.3 0.00 0.00 0.00 1013.5
20260905134113 0 244 2.6 4.3 0.00 0.00 0.00 1013.4
20260905134015 0 242 2.6 4.3 0.00 0.00 0.00 1013.4
20260905133912 0 241 2.6 5.2 0.00 0.00 0.00 1013.4
20260905133813 0 253 2.6 6.1 0.00 0.00 0.00 1013.5
20260905133710 0 254 2.6 6.1 0.00 0.00 0.00 1013.5
20260905133610 0 225 2.6 6.1 0.00 0.00 0.00 1013.4
20260905133510 0 224 2.6 6.1 0.00 0.00 0.00 1013.5
20260905133411 0 225 2.6 6.1 0.00 0.00 0.00 1013.6
20260905133326 0 225 2.6 6.1 0.00 0.00 0.00 1013.5
20260905133311 0 225 2.6 6.1 0.00 0.00 0.00 1013.4
20260905133109 0 225 2.6 6.1 0.00 0.00 0.00 1013.5
20260905133009 0 226 2.6 6.1 0.00 0.00 0.00 1013.4
20260905132909 0 226 2.6 6.1 0.00 0.00 0.00 1013.4
20260905132807 0 219 2.6 5.2 0.00 0.00 0.00 1013.4
20260905132605 0 287 2.6 5.2 0.00 0.00 0.00 1013.4
20260905132506 0 317 2.6 5.2 0.00 0.00 0.00 1013.4
20260905132406 0 325 2.6 5.2 0.00 0.00 0.00 1013.4
20260905132306 0 325 3.5 5.2 0.00 0.00 0.00 1013.4
20260905132105 0 225 3.5 7.0 0.00 0.00 0.00 1013.5
20260905132004 0 227 3.5 7.0 0.00 0.00 0.00 1013.5
20260905131903 0 232 3.5 7.0 0.00 0.00 0.00 1013.5
20260905131805 0 239 3.5 7.0 0.00 0.00 0.00 1013.4
20260905131601 0 259 3.5 7.0 0.00 0.00 0.00 1013.5
20260905131501 0 227 3.5 7.0 0.00 0.00 0.00 1013.4
20260905131359 0 228 3.5 7.0 0.00 0.00 0.00 1013.4
20260905131300 0 227 2.6 7.0 0.00 0.00 0.00 1013.4
20260905131201 0 222 2.6 7.0 0.00 0.00 0.00 1013.5
20260905131059 0 227 2.6 6.1 0.00 0.00 0.00 1013.5
20260905131001 0 228 2.6 6.1 0.00 0.00 0.00 1013.6
20260905130900 0 228 2.6 6.1 0.00 0.00 0.00 1013.5
20260905130800 0 228 2.6 6.1 0.00 0.00 0.00 1013.5
20260905130659 0 227 2.6 6.1 0.00 0.00 0.00 1013.6
20260905130559 0 229 2.6 6.1 0.00 0.00 0.00 1013.5
20260905130458 0 229 2.6 6.1 0.00 0.00 0.00 1013.6
20260905130357 0 229 2.6 6.1 0.00 0.00 0.00 1013.6
20260905130257 0 229 2.6 6.1 0.00 0.00 0.00 1013.7
20260905130159 0 229 2.6 6.1 0.00 0.00 0.00 1013.6
20260905130059 0 230 2.6 6.1 0.00 0.00 0.00 1013.7
20260905125957 0 230 2.6 6.1 0.00 0.00 0.00 1013.6
20260905125857 0 224 2.6 7.0 0.00 0.00 0.00 1013.6
20260905125759 0 232 2.6 7.0 0.00 0.00 0.00 1013.6